Time,TemperatureF,DewpointF,PressureIn,WindDirection,WindDirectionDegrees,WindSpeedMPH,WindSpeedGustMPH,Humidity,HourlyPrecipIn,Conditions,Clouds,dailyrainin,SolarRadiationWatts/m^2,SoftwareType,DateUTC
2013-06-23 00:00:00,72.3,64.7,30.02,SSW,202,1.1,1.1,77,0.00,FEW,,0.00,0.0,WeatherDisplay:10.37,2013-06-22 22:00:00,
2013-06-23 00:02:00,72.3,64.7,30.02,SSW,199,2.0,2.0,77,0.00,FEW,,0.00,0.0,WeatherDisplay:10.37,2013-06-22 22:02:00,
2013-06-23 00:03:00,72.3,64.7,30.02,SW,216,3.5,3.5,77,0.00,FEW,,0.00,0.0,WeatherDisplay:10.37,2013-06-22 22:03:00,
2013-06-23 00:04:00,72.2,64.6,30.02,SSW,211,3.5,3.5,77,0.00,FEW,,0.00,0.0,WeatherDisplay:10.37,2013-06-22 22:04:00,
2013-06-23 00:05:00,72.2,64.6,30.02,SW,225,4.0,4.0,77,0.00,FEW,,0.00,0.0,WeatherDisplay:10.37,2013-06-22 22:05:00,
2013-06-23 00:07:00,72.2,64.6,30.02,SW,232,3.5,3.5,77,0.00,FEW,,0.00,0.0,WeatherDisplay:10.37,2013-06-22 22:07:00,
2013-06-23 00:08:00,72.2,64.6,30.02,SSW,203,4.0,4.0,77,0.00,FEW,,0.00,0.0,WeatherDisplay:10.37,2013-06-22 22:08:00,
2013-06-23 00:09:00,72.2,65.0,30.03,SW,215,3.5,3.5,78,0.00,FEW,,0.00,0.0,WeatherDisplay:10.37,2013-06-22 22:09:00,
2013-06-23 00:10:00,72.2,65.0,30.03,SW,215,3.5,3.5,78,0.00,FEW,,0.00,0.0,WeatherDisplay:10.37,2013-06-22 22:10:00,
2013-06-23 00:12:00,72.2,65.0,30.03,SW,214,3.5,3.5,78,0.00,FEW,,0.00,0.0,WeatherDisplay:10.37,2013-06-22 22:12:00,
2013-06-23 00:13:00,72.2,65.0,30.03,SSW,207,3.0,3.0,78,0.00,FEW,,0.00,0.0,WeatherDisplay:10.37,2013-06-22 22:13:00,
2013-06-23 00:14:00,72.1,64.9,30.02,SSW,194,4.6,4.6,78,0.00,FEW,,0.00,0.0,WeatherDisplay:10.37,2013-06-22 22:14:00,
2013-06-23 00:15:00,72.1,64.9,30.02,SSW,192,4.6,4.6,78,0.00,FEW,,0.00,0.0,WeatherDisplay:10.37,2013-06-22 22:15:00,
2013-06-23 00:17:00,72.2,65.0,30.02,SSW,194,1.1,0.0,78,0.00,FEW,,0.00,0.0,WeatherDisplay:10.37,2013-06-22 22:17:00,
2013-06-23 00:19:00,72.2,65.0,30.02,South,173,0.0,0.0,78,0.00,FEW,,0.00,0.0,WeatherDisplay:10.37,2013-06-22 22:19:00,
2013-06-23 00:20:00,72.2,65.0,30.02,SSW,196,0.0,0.0,78,0.00,FEW,,0.00,0.0,WeatherDisplay:10.37,2013-06-22 22:20:00,
2013-06-23 00:23:00,72.1,64.9,30.02,SSW,203,3.5,3.5,78,0.00,FEW,,0.00,0.0,WeatherDisplay:10.37,2013-06-22 22:23:00,
2013-06-23 00:24:00,72.1,64.9,30.02,SSW,204,2.3,2.3,78,0.00,FEW,,0.00,0.0,WeatherDisplay:10.37,2013-06-22 22:24:00,
2013-06-23 00:25:00,72.1,64.9,30.02,SSW,207,3.5,3.5,78,0.00,FEW,,0.00,0.0,WeatherDisplay:10.37,2013-06-22 22:25:00,
2013-06-23 00:28:00,72.1,64.9,30.02,SSW,198,3.5,3.5,78,0.00,FEW,,0.00,0.0,WeatherDisplay:10.37,2013-06-22 22:28:00,
2013-06-23 00:29:00,72.0,64.8,30.02,SSW,197,3.5,3.5,78,0.00,FEW,,0.00,0.0,WeatherDisplay:10.37,2013-06-22 22:29:00,
2013-06-23 00:30:00,72.0,64.8,30.02,South,180,2.0,2.0,78,0.00,FEW,,0.00,0.0,WeatherDisplay:10.37,2013-06-22 22:30:00,
2013-06-23 00:33:00,72.0,64.8,30.02,South,173,0.0,0.0,78,0.00,FEW,,0.00,0.0,WeatherDisplay:10.37,2013-06-22 22:33:00,
2013-06-23 00:34:00,72.0,64.8,30.02,South,173,0.0,0.0,78,0.00,FEW,,0.00,0.0,WeatherDisplay:10.37,2013-06-22 22:34:00,
2013-06-23 00:35:00,72.0,64.8,30.02,South,173,0.0,0.0,78,0.00,FEW,,0.00,0.0,WeatherDisplay:10.37,2013-06-22 22:35:00,
2013-06-23 00:38:00,71.9,64.7,30.02,South,172,1.1,0.0,78,0.00,FEW,,0.00,0.0,WeatherDisplay:10.37,2013-06-22 22:38:00,
2013-06-23 00:39:00,71.9,64.7,30.02,SSE,159,2.0,2.0,78,0.00,FEW,,0.00,0.0,WeatherDisplay:10.37,2013-06-22 22:39:00,
2013-06-23 00:40:00,71.9,64.7,30.02,SSE,159,3.5,3.5,78,0.00,FEW,,0.00,0.0,WeatherDisplay:10.37,2013-06-22 22:40:00,
2013-06-23 00:41:00,71.9,64.7,30.02,SSE,163,2.3,2.3,78,0.00,FEW,,0.00,0.0,WeatherDisplay:10.37,2013-06-22 22:41:00,
2013-06-23 00:43:00,71.9,64.7,30.02,SSE,152,3.0,3.0,78,0.00,FEW,,0.00,0.0,WeatherDisplay:10.37,2013-06-22 22:43:00,
2013-06-23 00:45:00,71.9,64.7,30.01,SSE,148,3.5,3.5,78,0.00,FEW,,0.00,0.0,WeatherDisplay:10.37,2013-06-22 22:45:00,
2013-06-23 00:46:00,71.8,64.6,30.01,SE,143,3.5,3.5,78,0.00,FEW,,0.00,0.0,WeatherDisplay:10.37,2013-06-22 22:46:00,
2013-06-23 00:48:00,71.8,64.6,30.02,SSE,161,2.3,0.0,78,0.00,FEW,,0.00,0.0,WeatherDisplay:10.37,2013-06-22 22:48:00,
2013-06-23 00:50:00,71.8,64.6,30.02,SSE,161,0.0,0.0,78,0.00,FEW,,0.00,0.0,WeatherDisplay:10.37,2013-06-22 22:50:00,
2013-06-23 00:51:00,71.8,64.6,30.01,SSE,161,0.0,0.0,78,0.00,FEW,,0.00,0.0,WeatherDisplay:10.37,2013-06-22 22:51:00,
2013-06-23 00:54:00,71.8,64.6,30.01,SE,142,1.1,1.1,78,0.00,FEW,,0.00,0.0,WeatherDisplay:10.37,2013-06-22 22:54:00,
2013-06-23 00:55:00,71.8,64.6,30.01,SE,142,0.0,0.0,78,0.00,FEW,,0.00,0.0,WeatherDisplay:10.37,2013-06-22 22:55:00,
2013-06-23 00:56:00,71.8,64.6,30.01,SE,142,0.0,0.0,78,0.00,FEW,,0.00,0.0,WeatherDisplay:10.37,2013-06-22 22:56:00,
2013-06-23 00:59:00,71.8,64.6,30.01,SE,142,0.0,0.0,78,0.00,FEW,,0.00,0.0,WeatherDisplay:10.37,2013-06-22 22:59:00,
2013-06-23 01:00:00,71.8,64.6,30.01,SE,142,0.0,0.0,78,0.00,FEW,,0.00,0.0,WeatherDisplay:10.37,2013-06-22 23:00:00,
2013-06-23 01:01:00,71.8,64.6,30.01,SE,142,0.0,0.0,78,0.00,FEW,,0.00,0.0,WeatherDisplay:10.37,2013-06-22 23:01:00,
2013-06-23 01:04:00,71.8,64.6,30.01,SE,142,0.0,0.0,78,0.00,FEW,,0.00,0.0,WeatherDisplay:10.37,2013-06-22 23:04:00,
2013-06-23 01:05:00,71.8,64.6,30.01,SE,142,0.0,0.0,78,0.00,FEW,,0.00,0.0,WeatherDisplay:10.37,2013-06-22 23:05:00,
2013-06-23 01:07:00,71.8,64.6,30.01,SE,142,0.0,0.0,78,0.00,FEW,,0.00,0.0,WeatherDisplay:10.37,2013-06-22 23:07:00,
2013-06-23 01:09:00,71.8,64.6,30.01,SE,142,0.0,0.0,78,0.00,FEW,,0.00,0.0,WeatherDisplay:10.37,2013-06-22 23:09:00,
2013-06-23 01:10:00,71.8,64.6,30.01,ESE,111,0.0,0.0,78,0.00,FEW,,0.00,0.0,WeatherDisplay:10.37,2013-06-22 23:10:00,
2013-06-23 01:11:00,71.7,64.5,30.01,ESE,109,0.0,0.0,78,0.00,FEW,,0.00,0.0,WeatherDisplay:10.37,2013-06-22 23:11:00,
2013-06-23 01:12:00,71.7,64.5,30.01,ESE,109,1.1,0.0,78,0.00,FEW,,0.00,0.0,WeatherDisplay:10.37,2013-06-22 23:12:00,
2013-06-23 01:14:00,71.7,64.5,30.01,ESE,109,0.0,0.0,78,0.00,FEW,,0.00,0.0,WeatherDisplay:10.37,2013-06-22 23:14:00,
2013-06-23 01:15:00,71.7,64.5,30.01,ESE,109,0.0,0.0,78,0.00,FEW,,0.00,0.0,WeatherDisplay:10.37,2013-06-22 23:15:00,
2013-06-23 01:16:00,71.7,64.5,30.01,ESE,109,0.0,0.0,78,0.00,FEW,,0.00,0.0,WeatherDisplay:10.37,2013-06-22 23:16:00,
2013-06-23 01:17:00,71.7,64.5,30.01,ESE,109,0.0,0.0,78,0.00,FEW,,0.00,0.0,WeatherDisplay:10.37,2013-06-22 23:17:00,
2013-06-23 01:18:00,71.6,64.4,30.01,ESE,109,0.0,0.0,78,0.00,FEW,,0.00,0.0,WeatherDisplay:10.37,2013-06-22 23:18:00,
2013-06-23 01:20:00,71.6,64.4,30.01,ESE,109,0.0,0.0,78,0.00,FEW,,0.00,0.0,WeatherDisplay:10.37,2013-06-22 23:20:00,
2013-06-23 01:21:00,71.6,64.4,30.01,ESE,109,0.0,0.0,78,0.00,FEW,,0.00,0.0,WeatherDisplay:10.37,2013-06-22 23:21:00,
2013-06-23 01:22:00,71.6,64.4,30.01,East,81,0.0,0.0,78,0.00,FEW,,0.00,0.0,WeatherDisplay:10.37,2013-06-22 23:22:00,
2013-06-23 01:23:00,71.5,64.3,30.00,East,80,2.0,2.0,78,0.00,FEW,,0.00,0.0,WeatherDisplay:10.37,2013-06-22 23:23:00,
2013-06-23 01:25:00,71.5,64.3,30.01,ENE,69,3.5,3.5,78,0.00,FEW,,0.00,0.0,WeatherDisplay:10.37,2013-06-22 23:25:00,
2013-06-23 01:26:00,71.5,64.3,30.01,ENE,69,3.5,3.5,78,0.00,FEW,,0.00,0.0,WeatherDisplay:10.37,2013-06-22 23:26:00,
2013-06-23 01:27:00,71.4,64.2,30.01,ENE,69,1.1,0.0,78,0.00,FEW,,0.00,0.0,WeatherDisplay:10.37,2013-06-22 23:27:00,
2013-06-23 01:28:00,71.4,64.2,30.01,ENE,69,3.0,3.0,78,0.00,FEW,,0.00,0.0,WeatherDisplay:10.37,2013-06-22 23:28:00,
2013-06-23 01:30:00,71.4,64.2,30.00,ENE,57,3.5,3.5,78,0.00,FEW,,0.00,0.0,WeatherDisplay:10.37,2013-06-22 23:30:00,
2013-06-23 01:31:00,71.4,64.2,30.00,ENE,57,3.5,3.5,78,0.00,FEW,,0.00,0.0,WeatherDisplay:10.37,2013-06-22 23:31:00,
2013-06-23 01:32:00,71.3,64.4,30.00,NE,50,3.5,3.5,79,0.00,FEW,,0.00,0.0,WeatherDisplay:10.37,2013-06-22 23:32:00,
2013-06-23 01:33:00,71.3,64.4,30.00,NE,51,3.5,3.5,79,0.00,FEW,,0.00,0.0,WeatherDisplay:10.37,2013-06-22 23:33:00,
2013-06-23 01:36:00,71.2,64.4,30.00,NE,43,3.5,3.5,79,0.00,FEW,,0.00,0.0,WeatherDisplay:10.37,2013-06-22 23:36:00,
2013-06-23 01:37:00,71.2,64.4,30.00,NE,42,3.5,3.5,79,0.00,FEW,,0.00,0.0,WeatherDisplay:10.37,2013-06-22 23:37:00,
2013-06-23 01:38:00,71.2,64.4,30.00,NE,50,3.5,3.5,79,0.00,FEW,,0.00,0.0,WeatherDisplay:10.37,2013-06-22 23:38:00,
2013-06-23 01:41:00,71.2,64.4,30.00,ENE,59,3.5,3.5,79,0.00,FEW,,0.00,0.0,WeatherDisplay:10.37,2013-06-22 23:41:00,
2013-06-23 01:42:00,71.2,64.4,30.00,NE,35,4.0,4.0,79,0.00,FEW,,0.00,0.0,WeatherDisplay:10.37,2013-06-22 23:42:00,
2013-06-23 01:43:00,71.2,64.4,30.00,NE,52,3.5,3.5,79,0.00,FEW,,0.00,0.0,WeatherDisplay:10.37,2013-06-22 23:43:00,
2013-06-23 01:46:00,71.1,64.3,30.00,NE,53,4.6,4.6,79,0.00,FEW,,0.00,0.0,WeatherDisplay:10.37,2013-06-22 23:46:00,
2013-06-23 01:47:00,71.1,64.3,30.00,NE,55,3.5,3.5,79,0.00,FEW,,0.00,0.0,WeatherDisplay:10.37,2013-06-22 23:47:00,
2013-06-23 01:48:00,71.1,64.3,30.00,NE,56,1.1,1.1,79,0.00,FEW,,0.00,0.0,WeatherDisplay:10.37,2013-06-22 23:48:00,
2013-06-23 01:49:00,71.1,64.6,30.00,ENE,57,3.0,3.0,80,0.00,FEW,,0.00,0.0,WeatherDisplay:10.37,2013-06-22 23:49:00,
2013-06-23 01:51:00,71.0,64.5,30.00,ENE,65,2.3,2.3,80,0.00,FEW,,0.00,0.0,WeatherDisplay:10.37,2013-06-22 23:51:00,
2013-06-23 01:52:00,71.0,64.5,30.00,ENE,76,3.0,3.0,80,0.00,FEW,,0.00,0.0,WeatherDisplay:10.37,2013-06-22 23:52:00,
2013-06-23 01:53:00,71.0,64.5,30.00,ENE,71,3.5,3.5,80,0.00,FEW,,0.00,0.0,WeatherDisplay:10.37,2013-06-22 23:53:00,
2013-06-23 01:54:00,71.0,64.5,30.00,ENE,78,3.5,3.5,80,0.00,FEW,,0.00,0.0,WeatherDisplay:10.37,2013-06-22 23:54:00,
2013-06-23 01:56:00,71.0,64.5,30.00,ENE,68,3.5,3.5,80,0.00,FEW,,0.00,0.0,WeatherDisplay:10.37,2013-06-22 23:56:00,
2013-06-23 01:57:00,70.9,64.4,30.00,ENE,72,3.5,3.5,80,0.00,FEW,,0.00,0.0,WeatherDisplay:10.37,2013-06-22 23:57:00,
2013-06-23 01:58:00,70.9,64.4,30.00,ENE,71,3.5,3.5,80,0.00,FEW,,0.00,0.0,WeatherDisplay:10.37,2013-06-22 23:58:00,
2013-06-23 01:59:00,70.9,64.4,30.00,ENE,68,3.5,3.5,80,0.00,FEW,,0.00,0.0,WeatherDisplay:10.37,2013-06-22 23:59:00,
2013-06-23 02:02:00,70.9,64.4,30.00,ENE,74,3.5,3.5,80,0.00,FEW,,0.00,0.0,WeatherDisplay:10.37,2013-06-23 00:02:00,
2013-06-23 02:04:00,70.9,64.4,30.00,ENE,64,2.3,2.3,80,0.00,FEW,,0.00,0.0,WeatherDisplay:10.37,2013-06-23 00:04:00,
2013-06-23 02:05:00,70.8,64.3,30.00,ENE,64,3.0,3.0,80,0.00,FEW,,0.00,0.0,WeatherDisplay:10.37,2013-06-23 00:05:00,
2013-06-23 02:07:00,70.8,64.3,30.00,ENE,58,2.3,2.3,80,0.00,FEW,,0.00,0.0,WeatherDisplay:10.37,2013-06-23 00:07:00,
2013-06-23 02:08:00,70.8,64.3,30.00,ENE,75,1.1,1.1,80,0.00,FEW,,0.00,0.0,WeatherDisplay:10.37,2013-06-23 00:08:00,
2013-06-23 02:09:00,70.7,64.2,30.00,ENE,78,1.0,1.0,80,0.00,FEW,,0.00,0.0,WeatherDisplay:10.37,2013-06-23 00:09:00,
2013-06-23 02:10:00,70.7,64.2,30.00,ENE,78,2.3,2.3,80,0.00,FEW,,0.00,0.0,WeatherDisplay:10.37,2013-06-23 00:10:00,
2013-06-23 02:12:00,70.7,64.2,30.00,ENE,65,1.1,0.0,80,0.00,FEW,,0.00,0.0,WeatherDisplay:10.37,2013-06-23 00:12:00,
2013-06-23 02:13:00,70.7,64.2,30.00,ENE,65,0.0,0.0,80,0.00,FEW,,0.00,0.0,WeatherDisplay:10.37,2013-06-23 00:13:00,
2013-06-23 02:14:00,70.7,64.2,30.00,ENE,65,0.0,0.0,80,0.00,FEW,,0.00,0.0,WeatherDisplay:10.37,2013-06-23 00:14:00,
2013-06-23 02:16:00,70.7,64.2,29.99,ENE,62,2.0,2.0,80,0.00,FEW,,0.00,0.0,WeatherDisplay:10.37,2013-06-23 00:16:00,
2013-06-23 02:17:00,70.6,64.1,30.00,NE,53,3.5,3.5,80,0.00,FEW,,0.00,0.0,WeatherDisplay:10.37,2013-06-23 00:17:00,
2013-06-23 02:18:00,70.6,64.1,30.00,NE,53,3.5,3.5,80,0.00,FEW,,0.00,0.0,WeatherDisplay:10.37,2013-06-23 00:18:00,
2013-06-23 02:19:00,70.6,64.1,30.00,NE,53,3.5,3.5,80,0.00,FEW,,0.00,0.0,WeatherDisplay:10.37,2013-06-23 00:19:00,
2013-06-23 02:21:00,70.5,64.0,29.99,NE,54,3.5,3.5,80,0.00,FEW,,0.00,0.0,WeatherDisplay:10.37,2013-06-23 00:21:00,
2013-06-23 02:22:00,70.5,64.0,29.99,NE,54,3.5,3.5,80,0.00,FEW,,0.00,0.0,WeatherDisplay:10.37,2013-06-23 00:22:00,
2013-06-23 02:23:00,70.5,64.0,29.99,NE,54,2.3,2.3,80,0.00,FEW,,0.00,0.0,WeatherDisplay:10.37,2013-06-23 00:23:00,
2013-06-23 02:25:00,70.4,63.9,29.99,NE,54,3.5,3.5,80,0.00,FEW,,0.00,0.0,WeatherDisplay:10.37,2013-06-23 00:25:00,
2013-06-23 02:27:00,70.4,63.9,29.99,NE,40,3.5,3.5,80,0.00,FEW,,0.00,0.0,WeatherDisplay:10.37,2013-06-23 00:27:00,
2013-06-23 02:28:00,70.4,63.9,29.99,NE,49,3.5,3.5,80,0.00,FEW,,0.00,0.0,WeatherDisplay:10.37,2013-06-23 00:28:00,
2013-06-23 02:30:00,70.4,63.9,29.99,NE,52,3.5,3.5,80,0.00,FEW,,0.00,0.0,WeatherDisplay:10.37,2013-06-23 00:30:00,
2013-06-23 02:32:00,70.4,63.9,29.99,ENE,59,2.3,2.3,80,0.00,FEW,,0.00,0.0,WeatherDisplay:10.37,2013-06-23 00:32:00,
2013-06-23 02:33:00,70.4,63.9,29.99,ENE,76,3.5,3.5,80,0.00,FEW,,0.00,0.0,WeatherDisplay:10.37,2013-06-23 00:33:00,
2013-06-23 02:35:00,70.4,64.3,29.99,ENE,78,3.5,3.5,81,0.00,FEW,,0.00,0.0,WeatherDisplay:10.37,2013-06-23 00:35:00,
2013-06-23 02:37:00,70.4,64.3,29.99,ENE,77,2.3,2.3,81,0.00,FEW,,0.00,0.0,WeatherDisplay:10.37,2013-06-23 00:37:00,
2013-06-23 02:38:00,70.4,64.3,29.99,ENE,74,2.3,2.3,81,0.00,FEW,,0.00,0.0,WeatherDisplay:10.37,2013-06-23 00:38:00,
2013-06-23 02:39:00,70.4,64.3,29.98,ENE,74,2.3,2.3,81,0.00,FEW,,0.00,0.0,WeatherDisplay:10.37,2013-06-23 00:39:00,
2013-06-23 02:40:00,70.4,64.3,29.99,ENE,61,2.3,2.3,81,0.00,FEW,,0.00,0.0,WeatherDisplay:10.37,2013-06-23 00:40:00,
2013-06-23 02:41:00,70.4,64.3,29.99,ENE,62,2.3,2.3,81,0.00,FEW,,0.00,0.0,WeatherDisplay:10.37,2013-06-23 00:41:00,
2013-06-23 02:42:00,70.4,64.3,29.99,NE,47,2.3,2.3,81,0.00,FEW,,0.00,0.0,WeatherDisplay:10.37,2013-06-23 00:42:00,
2013-06-23 02:43:00,70.4,64.3,29.99,NE,53,0.0,0.0,81,0.00,FEW,,0.00,0.0,WeatherDisplay:10.37,2013-06-23 00:43:00,
2013-06-23 02:44:00,70.4,64.3,29.99,NE,53,2.0,2.0,81,0.00,FEW,,0.00,0.0,WeatherDisplay:10.37,2013-06-23 00:44:00,
2013-06-23 02:46:00,70.4,64.3,29.98,ENE,60,2.3,2.3,81,0.00,FEW,,0.00,0.0,WeatherDisplay:10.37,2013-06-23 00:46:00,
2013-06-23 02:47:00,70.4,64.3,29.98,ENE,60,2.3,2.3,81,0.00,FEW,,0.00,0.0,WeatherDisplay:10.37,2013-06-23 00:47:00,
2013-06-23 02:49:00,70.4,63.9,29.99,ENE,65,1.1,0.0,80,0.00,FEW,,0.00,0.0,WeatherDisplay:10.37,2013-06-23 00:49:00,
2013-06-23 02:50:00,70.4,63.9,29.99,NE,56,1.1,1.1,80,0.00,FEW,,0.00,0.0,WeatherDisplay:10.37,2013-06-23 00:50:00,
2013-06-23 02:51:00,70.4,63.9,29.99,ENE,57,3.5,3.5,80,0.00,FEW,,0.00,0.0,WeatherDisplay:10.37,2013-06-23 00:51:00,
2013-06-23 02:52:00,70.3,63.8,29.98,ENE,59,3.5,3.5,80,0.00,FEW,,0.00,0.0,WeatherDisplay:10.37,2013-06-23 00:52:00,
2013-06-23 02:54:00,70.3,63.8,29.98,NE,51,2.3,2.3,80,0.00,FEW,,0.00,0.0,WeatherDisplay:10.37,2013-06-23 00:54:00,
2013-06-23 02:55:00,70.3,63.8,29.98,NE,52,2.3,2.3,80,0.00,FEW,,0.00,0.0,WeatherDisplay:10.37,2013-06-23 00:55:00,
2013-06-23 02:56:00,70.3,63.8,29.99,ENE,65,2.3,2.3,80,0.00,FEW,,0.00,0.0,WeatherDisplay:10.37,2013-06-23 00:56:00,
2013-06-23 02:57:00,70.3,63.8,29.99,ENE,65,2.3,2.3,80,0.00,FEW,,0.00,0.0,WeatherDisplay:10.37,2013-06-23 00:57:00,
2013-06-23 02:59:00,70.3,63.8,29.99,ENE,65,0.0,0.0,80,0.00,FEW,,0.00,0.0,WeatherDisplay:10.37,2013-06-23 00:59:00,
2013-06-23 03:00:00,70.3,63.8,29.99,ENE,65,0.0,0.0,80,0.00,FEW,,0.00,0.0,WeatherDisplay:10.37,2013-06-23 01:00:00,
2013-06-23 03:02:00,70.3,63.8,29.99,ENE,65,0.0,0.0,80,0.00,FEW,,0.00,0.0,WeatherDisplay:10.37,2013-06-23 01:02:00,
2013-06-23 03:04:00,70.3,63.8,29.99,ENE,65,0.0,0.0,80,0.00,FEW,,0.00,0.0,WeatherDisplay:10.37,2013-06-23 01:04:00,
2013-06-23 03:05:00,70.3,63.8,29.99,ENE,65,1.1,1.1,80,0.00,FEW,,0.00,0.0,WeatherDisplay:10.37,2013-06-23 01:05:00,
2013-06-23 03:07:00,70.3,63.8,29.99,ENE,65,0.0,0.0,80,0.00,FEW,,0.00,0.0,WeatherDisplay:10.37,2013-06-23 01:07:00,
2013-06-23 03:10:00,70.3,63.8,29.99,ENE,65,0.0,0.0,80,0.00,FEW,,0.00,0.0,WeatherDisplay:10.37,2013-06-23 01:10:00,
2013-06-23 03:12:00,70.3,63.8,29.99,ENE,65,0.0,0.0,80,0.00,FEW,,0.00,0.0,WeatherDisplay:10.37,2013-06-23 01:12:00,
2013-06-23 03:13:00,70.2,64.1,29.99,ENE,65,2.0,2.0,81,0.00,FEW,,0.00,0.0,WeatherDisplay:10.37,2013-06-23 01:13:00,
2013-06-23 03:15:00,70.2,64.1,29.99,ENE,63,3.5,3.5,81,0.00,FEW,,0.00,0.0,WeatherDisplay:10.37,2013-06-23 01:15:00,
2013-06-23 03:17:00,70.2,64.1,29.99,ENE,63,3.5,3.5,81,0.00,FEW,,0.00,0.0,WeatherDisplay:10.37,2013-06-23 01:17:00,
2013-06-23 03:18:00,70.2,64.1,29.99,ENE,63,2.3,2.3,81,0.00,FEW,,0.00,0.0,WeatherDisplay:10.37,2013-06-23 01:18:00,
2013-06-23 03:19:00,70.2,64.1,29.99,ENE,63,1.1,0.0,81,0.00,FEW,,0.00,0.0,WeatherDisplay:10.37,2013-06-23 01:19:00,
2013-06-23 03:20:00,70.2,64.1,29.98,ENE,63,0.0,0.0,81,0.00,FEW,,0.00,0.0,WeatherDisplay:10.37,2013-06-23 01:20:00,
2013-06-23 03:21:00,70.2,64.1,29.98,ENE,63,1.1,0.0,81,0.00,FEW,,0.00,0.0,WeatherDisplay:10.37,2013-06-23 01:21:00,
2013-06-23 03:22:00,70.2,64.1,29.98,ENE,63,0.0,0.0,81,0.00,FEW,,0.00,0.0,WeatherDisplay:10.37,2013-06-23 01:22:00,
2013-06-23 03:23:00,70.2,64.1,29.98,ENE,63,0.0,0.0,81,0.00,FEW,,0.00,0.0,WeatherDisplay:10.37,2013-06-23 01:23:00,
2013-06-23 03:24:00,70.2,64.1,29.98,ENE,63,0.0,0.0,81,0.00,FEW,,0.00,0.0,WeatherDisplay:10.37,2013-06-23 01:24:00,
2013-06-23 03:25:00,70.2,64.1,29.98,ENE,68,2.0,2.0,81,0.00,FEW,,0.00,0.0,WeatherDisplay:10.37,2013-06-23 01:25:00,
2013-06-23 03:26:00,70.2,64.1,29.98,ENE,68,3.5,3.5,81,0.00,FEW,,0.00,0.0,WeatherDisplay:10.37,2013-06-23 01:26:00,
2013-06-23 03:27:00,70.2,64.1,29.98,ENE,67,2.3,2.3,81,0.00,FEW,,0.00,0.0,WeatherDisplay:10.37,2013-06-23 01:27:00,
2013-06-23 03:28:00,70.2,63.7,29.98,ENE,67,3.5,3.5,80,0.00,FEW,,0.00,0.0,WeatherDisplay:10.37,2013-06-23 01:28:00,
2013-06-23 03:29:00,70.2,63.7,29.98,ENE,67,2.3,2.3,80,0.00,FEW,,0.00,0.0,WeatherDisplay:10.37,2013-06-23 01:29:00,
2013-06-23 03:30:00,70.2,63.7,29.98,ENE,67,2.3,0.0,80,0.00,FEW,,0.00,0.0,WeatherDisplay:10.37,2013-06-23 01:30:00,
2013-06-23 03:31:00,70.2,63.7,29.98,ENE,67,0.0,0.0,80,0.00,FEW,,0.00,0.0,WeatherDisplay:10.37,2013-06-23 01:31:00,
2013-06-23 03:32:00,70.2,63.7,29.98,ENE,67,0.0,0.0,80,0.00,FEW,,0.00,0.0,WeatherDisplay:10.37,2013-06-23 01:32:00,
2013-06-23 03:33:00,70.2,63.7,29.98,ENE,67,0.0,0.0,80,0.00,FEW,,0.00,0.0,WeatherDisplay:10.37,2013-06-23 01:33:00,
2013-06-23 03:34:00,70.2,63.7,29.99,ENE,67,0.0,0.0,80,0.00,FEW,,0.00,0.0,WeatherDisplay:10.37,2013-06-23 01:34:00,
2013-06-23 03:36:00,70.2,63.7,29.99,ENE,67,0.0,0.0,80,0.00,FEW,,0.00,0.0,WeatherDisplay:10.37,2013-06-23 01:36:00,
2013-06-23 03:37:00,70.2,63.7,29.99,ENE,67,0.0,0.0,80,0.00,FEW,,0.00,0.0,WeatherDisplay:10.37,2013-06-23 01:37:00,
2013-06-23 03:38:00,70.2,63.7,29.99,ENE,67,0.0,0.0,80,0.00,FEW,,0.00,0.0,WeatherDisplay:10.37,2013-06-23 01:38:00,
2013-06-23 03:39:00,70.2,63.7,29.99,ENE,67,0.0,0.0,80,0.00,FEW,,0.00,0.0,WeatherDisplay:10.37,2013-06-23 01:39:00,
2013-06-23 03:41:00,70.2,63.7,29.99,ENE,67,0.0,0.0,80,0.00,FEW,,0.00,0.0,WeatherDisplay:10.37,2013-06-23 01:41:00,
2013-06-23 03:43:00,70.1,63.6,29.99,ENE,67,0.0,0.0,80,0.00,FEW,,0.00,0.0,WeatherDisplay:10.37,2013-06-23 01:43:00,
2013-06-23 03:44:00,70.1,63.6,29.99,ENE,67,0.0,0.0,80,0.00,FEW,,0.00,0.0,WeatherDisplay:10.37,2013-06-23 01:44:00,
2013-06-23 03:46:00,70.1,63.6,29.99,ENE,67,0.0,0.0,80,0.00,FEW,,0.00,0.0,WeatherDisplay:10.37,2013-06-23 01:46:00,
2013-06-23 03:48:00,70.1,63.6,29.99,ENE,67,0.0,0.0,80,0.00,FEW,,0.00,0.0,WeatherDisplay:10.37,2013-06-23 01:48:00,
2013-06-23 03:49:00,70.0,63.5,29.99,ENE,67,0.0,0.0,80,0.00,FEW,,0.00,0.0,WeatherDisplay:10.37,2013-06-23 01:49:00,
2013-06-23 03:51:00,70.0,63.5,29.99,ENE,67,0.0,0.0,80,0.00,FEW,,0.00,0.0,WeatherDisplay:10.37,2013-06-23 01:51:00,
2013-06-23 03:52:00,70.0,63.5,29.99,ENE,67,0.0,0.0,80,0.00,FEW,,0.00,0.0,WeatherDisplay:10.37,2013-06-23 01:52:00,
2013-06-23 03:53:00,70.0,63.5,29.98,ENE,67,0.0,0.0,80,0.00,FEW,,0.00,0.0,WeatherDisplay:10.37,2013-06-23 01:53:00,
2013-06-23 03:54:00,70.0,63.5,29.99,ENE,67,0.0,0.0,80,0.00,FEW,,0.00,0.0,WeatherDisplay:10.37,2013-06-23 01:54:00,
2013-06-23 03:55:00,70.0,63.5,29.99,ENE,67,0.0,0.0,80,0.00,FEW,,0.00,0.0,WeatherDisplay:10.37,2013-06-23 01:55:00,
2013-06-23 03:57:00,69.9,63.4,29.99,ENE,67,0.0,0.0,80,0.00,FEW,,0.00,0.0,WeatherDisplay:10.37,2013-06-23 01:57:00,
2013-06-23 03:58:00,69.9,63.4,29.99,ENE,67,0.0,0.0,80,0.00,FEW,,0.00,0.0,WeatherDisplay:10.37,2013-06-23 01:58:00,
2013-06-23 04:00:00,69.9,63.4,29.99,ENE,67,0.0,0.0,80,0.00,FEW,,0.00,0.0,WeatherDisplay:10.37,2013-06-23 02:00:00,
2013-06-23 04:02:00,69.9,63.4,29.99,ENE,76,0.0,0.1,80,0.00,FEW,,0.00,0.0,WeatherDisplay:10.37,2013-06-23 02:02:00,
2013-06-23 04:03:00,69.8,63.3,29.98,ESE,107,3.0,3.0,80,0.00,FEW,,0.00,0.0,WeatherDisplay:10.37,2013-06-23 02:03:00,
2013-06-23 04:05:00,69.8,63.3,29.98,ESE,106,3.5,3.5,80,0.00,FEW,,0.00,0.0,WeatherDisplay:10.37,2013-06-23 02:05:00,
2013-06-23 04:06:00,69.8,63.3,29.99,ESE,106,2.3,2.3,80,0.00,FEW,,0.00,0.0,WeatherDisplay:10.37,2013-06-23 02:06:00,
2013-06-23 04:07:00,69.8,63.3,29.99,ESE,106,0.0,0.0,80,0.00,FEW,,0.00,0.0,WeatherDisplay:10.37,2013-06-23 02:07:00,
2013-06-23 04:08:00,69.8,63.3,29.98,ESE,106,1.1,0.0,80,0.00,FEW,,0.00,0.0,WeatherDisplay:10.37,2013-06-23 02:08:00,
2013-06-23 04:10:00,69.8,63.3,29.99,ESE,106,0.0,0.0,80,0.00,FEW,,0.00,0.0,WeatherDisplay:10.37,2013-06-23 02:10:00,
2013-06-23 04:11:00,69.8,63.3,29.99,ESE,106,0.0,0.0,80,0.00,FEW,,0.00,0.0,WeatherDisplay:10.37,2013-06-23 02:11:00,
2013-06-23 04:12:00,69.8,63.3,29.99,ESE,106,0.0,0.0,80,0.00,FEW,,0.00,0.0,WeatherDisplay:10.37,2013-06-23 02:12:00,
2013-06-23 04:13:00,69.7,63.3,29.99,ESE,106,0.0,0.0,80,0.00,FEW,,0.00,0.0,WeatherDisplay:10.37,2013-06-23 02:13:00,
2013-06-23 04:14:00,69.8,63.3,29.99,ESE,106,0.0,0.0,80,0.00,FEW,,0.00,0.0,WeatherDisplay:10.37,2013-06-23 02:14:00,
2013-06-23 04:15:00,69.8,63.3,29.99,ESE,106,0.0,0.0,80,0.00,FEW,,0.00,0.0,WeatherDisplay:10.37,2013-06-23 02:15:00,
2013-06-23 04:16:00,69.8,63.3,29.98,ESE,106,1.0,1.0,80,0.00,FEW,,0.00,0.0,WeatherDisplay:10.37,2013-06-23 02:16:00,
2013-06-23 04:17:00,69.8,63.7,29.99,ESE,106,1.1,1.1,81,0.00,FEW,,0.00,0.0,WeatherDisplay:10.37,2013-06-23 02:17:00,
2013-06-23 04:18:00,69.8,63.7,29.99,ESE,106,1.1,1.1,81,0.00,FEW,,0.00,0.0,WeatherDisplay:10.37,2013-06-23 02:18:00,
2013-06-23 04:19:00,69.8,63.7,29.98,ESE,106,1.1,1.1,81,0.00,FEW,,0.00,0.0,WeatherDisplay:10.37,2013-06-23 02:19:00,
2013-06-23 04:20:00,69.8,63.3,29.98,ESE,106,0.0,0.0,80,0.00,FEW,,0.00,0.0,WeatherDisplay:10.37,2013-06-23 02:20:00,
2013-06-23 04:21:00,69.8,63.3,29.98,ESE,106,0.0,0.0,80,0.00,FEW,,0.00,0.0,WeatherDisplay:10.37,2013-06-23 02:21:00,
2013-06-23 04:22:00,69.8,63.3,29.98,ESE,106,0.0,0.0,80,0.00,FEW,,0.00,0.0,WeatherDisplay:10.37,2013-06-23 02:22:00,
2013-06-23 04:23:00,69.8,63.3,29.99,ESE,106,0.0,0.0,80,0.00,FEW,,0.00,0.0,WeatherDisplay:10.37,2013-06-23 02:23:00,
2013-06-23 04:24:00,69.8,63.7,29.99,ESE,106,0.0,0.0,81,0.00,FEW,,0.00,0.0,WeatherDisplay:10.37,2013-06-23 02:24:00,
2013-06-23 04:26:00,69.9,63.8,29.98,ENE,60,2.0,2.0,81,0.00,FEW,,0.00,0.0,WeatherDisplay:10.37,2013-06-23 02:26:00,
2013-06-23 04:28:00,69.9,63.8,29.99,ENE,60,2.3,2.3,81,0.00,FEW,,0.00,0.0,WeatherDisplay:10.37,2013-06-23 02:28:00,
2013-06-23 04:29:00,69.9,63.4,29.99,ENE,60,2.3,0.0,80,0.00,FEW,,0.00,0.0,WeatherDisplay:10.37,2013-06-23 02:29:00,
2013-06-23 04:31:00,69.9,63.4,29.98,ENE,60,1.1,1.1,80,0.00,FEW,,0.00,0.0,WeatherDisplay:10.37,2013-06-23 02:31:00,
2013-06-23 04:33:00,69.9,63.4,29.99,ENE,60,2.3,2.3,80,0.00,FEW,,0.00,0.0,WeatherDisplay:10.37,2013-06-23 02:33:00,
2013-06-23 04:34:00,69.8,63.3,29.98,ENE,65,2.3,2.3,80,0.00,FEW,,0.00,0.0,WeatherDisplay:10.37,2013-06-23 02:34:00,
2013-06-23 04:36:00,69.9,63.4,29.98,ENE,69,3.5,3.5,80,0.00,FEW,,0.00,0.0,WeatherDisplay:10.37,2013-06-23 02:36:00,
2013-06-23 04:38:00,69.8,63.3,29.98,ENE,75,3.5,3.5,80,0.00,FEW,,0.00,0.0,WeatherDisplay:10.37,2013-06-23 02:38:00,
2013-06-23 04:40:00,69.8,63.3,29.98,ENE,74,2.3,2.3,80,0.00,FEW,,0.00,0.0,WeatherDisplay:10.37,2013-06-23 02:40:00,
2013-06-23 04:41:00,69.8,63.3,29.98,ENE,74,2.3,2.3,80,0.00,FEW,,0.00,0.0,WeatherDisplay:10.37,2013-06-23 02:41:00,
2013-06-23 04:43:00,69.8,63.3,29.98,ENE,74,0.0,0.0,80,0.00,FEW,,0.00,0.0,WeatherDisplay:10.37,2013-06-23 02:43:00,
2013-06-23 04:44:00,69.8,63.3,29.98,ENE,74,0.0,0.0,80,0.00,FEW,,0.00,0.0,WeatherDisplay:10.37,2013-06-23 02:44:00,
2013-06-23 04:45:00,69.8,63.3,29.98,ENE,74,0.0,0.0,80,0.00,FEW,,0.00,0.0,WeatherDisplay:10.37,2013-06-23 02:45:00,
2013-06-23 04:46:00,69.8,63.3,29.98,ENE,74,0.0,0.0,80,0.00,FEW,,0.00,0.0,WeatherDisplay:10.37,2013-06-23 02:46:00,
2013-06-23 04:47:00,69.8,63.3,29.98,ENE,74,0.0,0.0,80,0.00,FEW,,0.00,0.0,WeatherDisplay:10.37,2013-06-23 02:47:00,
2013-06-23 04:48:00,69.8,63.3,29.98,ENE,71,0.0,0.0,80,0.00,FEW,,0.00,0.0,WeatherDisplay:10.37,2013-06-23 02:48:00,
2013-06-23 04:49:00,69.8,63.3,29.98,ENE,71,0.0,0.0,80,0.00,FEW,,0.00,0.0,WeatherDisplay:10.37,2013-06-23 02:49:00,
2013-06-23 04:50:00,69.8,63.3,29.98,ENE,70,1.0,1.0,80,0.00,FEW,,0.00,0.0,WeatherDisplay:10.37,2013-06-23 02:50:00,
2013-06-23 04:51:00,69.8,63.3,29.98,ENE,71,2.3,2.3,80,0.00,FEW,,0.00,0.0,WeatherDisplay:10.37,2013-06-23 02:51:00,
2013-06-23 04:52:00,69.8,63.3,29.98,ENE,71,2.3,2.3,80,0.00,FEW,,0.00,0.0,WeatherDisplay:10.37,2013-06-23 02:52:00,
2013-06-23 04:54:00,69.8,63.3,29.99,ENE,71,2.3,2.3,80,0.00,FEW,,0.00,0.0,WeatherDisplay:10.37,2013-06-23 02:54:00,
2013-06-23 04:55:00,69.8,63.3,29.99,ENE,71,0.0,0.0,80,0.00,FEW,,0.00,0.0,WeatherDisplay:10.37,2013-06-23 02:55:00,
2013-06-23 04:56:00,69.8,63.3,29.99,ENE,71,0.0,0.0,80,0.00,FEW,,0.00,0.0,WeatherDisplay:10.37,2013-06-23 02:56:00,
2013-06-23 04:57:00,69.8,63.3,29.99,ENE,71,1.1,0.0,80,0.00,FEW,,0.00,0.0,WeatherDisplay:10.37,2013-06-23 02:57:00,
2013-06-23 04:59:00,69.8,63.3,29.99,ENE,71,0.0,0.0,80,0.00,FEW,,0.00,0.0,WeatherDisplay:10.37,2013-06-23 02:59:00,
2013-06-23 05:00:00,69.8,63.3,29.99,ENE,71,0.0,0.0,80,0.00,FEW,,0.00,0.0,WeatherDisplay:10.37,2013-06-23 03:00:00,
2013-06-23 05:01:00,69.8,63.3,29.99,ENE,71,0.0,0.0,80,0.00,FEW,,0.00,0.0,WeatherDisplay:10.37,2013-06-23 03:01:00,
2013-06-23 05:02:00,69.8,63.3,29.99,ENE,71,0.0,0.0,80,0.00,FEW,,0.00,0.0,WeatherDisplay:10.37,2013-06-23 03:02:00,
2013-06-23 05:04:00,69.7,63.3,29.99,ENE,71,0.0,0.0,80,0.00,FEW,,0.00,0.0,WeatherDisplay:10.37,2013-06-23 03:04:00,
2013-06-23 05:05:00,69.7,63.3,29.99,ENE,71,0.0,0.0,80,0.00,FEW,,0.00,0.0,WeatherDisplay:10.37,2013-06-23 03:05:00,
2013-06-23 05:06:00,69.7,63.3,29.99,ENE,71,0.0,0.0,80,0.00,FEW,,0.00,0.0,WeatherDisplay:10.37,2013-06-23 03:06:00,
2013-06-23 05:07:00,69.7,63.3,29.99,ENE,71,0.0,0.0,80,0.00,FEW,,0.00,0.0,WeatherDisplay:10.37,2013-06-23 03:07:00,
2013-06-23 05:08:00,69.7,63.3,29.99,ENE,73,0.0,0.0,80,0.00,FEW,,0.00,0.0,WeatherDisplay:10.37,2013-06-23 03:08:00,
2013-06-23 05:10:00,69.7,63.3,29.99,ENE,73,0.0,0.0,80,0.00,FEW,,0.00,0.0,WeatherDisplay:10.37,2013-06-23 03:10:00,
2013-06-23 05:11:00,69.7,63.3,29.99,ENE,73,0.0,0.0,80,0.00,FEW,,0.00,0.0,WeatherDisplay:10.37,2013-06-23 03:11:00,
2013-06-23 05:12:00,69.6,63.2,29.99,ENE,73,0.0,0.0,80,0.00,FEW,,0.00,0.0,WeatherDisplay:10.37,2013-06-23 03:12:00,
2013-06-23 05:13:00,69.6,63.2,29.99,ENE,73,0.0,0.0,80,0.00,FEW,,0.00,0.0,WeatherDisplay:10.37,2013-06-23 03:13:00,
2013-06-23 05:15:00,69.6,63.2,29.99,East,92,2.3,2.3,80,0.00,FEW,,0.00,0.0,WeatherDisplay:10.37,2013-06-23 03:15:00,
2013-06-23 05:16:00,69.6,63.2,29.99,East,94,2.3,2.3,80,0.00,FEW,,0.00,0.0,WeatherDisplay:10.37,2013-06-23 03:16:00,
2013-06-23 05:17:00,69.6,63.2,29.99,East,95,3.5,3.5,80,0.00,FEW,,0.00,0.0,WeatherDisplay:10.37,2013-06-23 03:17:00,
2013-06-23 05:18:00,69.6,63.2,29.99,East,95,2.3,2.3,80,0.00,FEW,,0.00,0.0,WeatherDisplay:10.37,2013-06-23 03:18:00,
2013-06-23 05:20:00,69.6,63.2,29.99,East,97,1.1,0.0,80,0.00,FEW,,0.00,0.0,WeatherDisplay:10.37,2013-06-23 03:20:00,
2013-06-23 05:22:00,69.5,63.1,29.99,East,97,0.0,0.0,80,0.00,FEW,,0.00,0.0,WeatherDisplay:10.37,2013-06-23 03:22:00,
2013-06-23 05:23:00,69.6,63.2,29.99,East,99,1.1,0.0,80,0.00,FEW,,0.00,0.0,WeatherDisplay:10.37,2013-06-23 03:23:00,
2013-06-23 05:25:00,69.5,63.1,29.99,East,99,0.0,0.0,80,0.00,FEW,,0.00,0.0,WeatherDisplay:10.37,2013-06-23 03:25:00,
2013-06-23 05:27:00,69.5,63.1,29.99,East,99,0.0,0.0,80,0.00,FEW,,0.00,0.0,WeatherDisplay:10.37,2013-06-23 03:27:00,
2013-06-23 05:28:00,69.5,63.1,29.99,East,99,0.0,0.0,80,0.00,FEW,,0.00,0.0,WeatherDisplay:10.37,2013-06-23 03:28:00,
2013-06-23 05:30:00,69.5,63.1,29.99,East,99,0.0,0.0,80,0.00,FEW,,0.00,0.0,WeatherDisplay:10.37,2013-06-23 03:30:00,
2013-06-23 05:32:00,69.5,63.1,29.99,East,99,0.0,0.0,80,0.00,FEW,,0.00,0.0,WeatherDisplay:10.37,2013-06-23 03:32:00,
2013-06-23 05:33:00,69.5,63.1,29.99,East,99,0.0,0.0,80,0.00,FEW,,0.00,0.0,WeatherDisplay:10.37,2013-06-23 03:33:00,
2013-06-23 05:34:00,69.5,63.1,29.99,East,99,0.0,0.0,80,0.00,FEW,,0.00,0.0,WeatherDisplay:10.37,2013-06-23 03:34:00,
2013-06-23 05:35:00,69.5,63.1,29.99,East,99,0.0,0.0,80,0.00,FEW,,0.00,0.0,WeatherDisplay:10.37,2013-06-23 03:35:00,
2013-06-23 05:36:00,69.6,63.2,29.99,East,99,0.0,0.0,80,0.00,FEW,,0.00,0.0,WeatherDisplay:10.37,2013-06-23 03:36:00,
2013-06-23 05:37:00,69.6,63.2,29.99,East,89,1.0,1.0,80,0.00,FEW,,0.00,5.0,WeatherDisplay:10.37,2013-06-23 03:37:00,
2013-06-23 05:38:00,69.6,63.2,29.99,East,89,2.0,2.0,80,0.00,FEW,,0.00,5.0,WeatherDisplay:10.37,2013-06-23 03:38:00,
2013-06-23 05:39:00,69.6,63.2,29.99,East,89,2.3,2.3,80,0.00,FEW,,0.00,5.0,WeatherDisplay:10.37,2013-06-23 03:39:00,
2013-06-23 05:41:00,69.5,63.1,29.99,East,89,2.3,2.3,80,0.00,FEW,,0.00,9.0,WeatherDisplay:10.37,2013-06-23 03:41:00,
2013-06-23 05:42:00,69.6,63.2,29.99,East,89,0.0,0.0,80,0.00,FEW,,0.00,12.0,WeatherDisplay:10.37,2013-06-23 03:42:00,
2013-06-23 05:43:00,69.6,63.2,29.99,East,89,0.0,0.0,80,0.00,FEW,,0.00,12.0,WeatherDisplay:10.37,2013-06-23 03:43:00,
2013-06-23 05:44:00,69.6,63.2,29.99,East,89,0.0,0.0,80,0.00,FEW,,0.00,16.0,WeatherDisplay:10.37,2013-06-23 03:44:00,
2013-06-23 05:46:00,69.6,63.2,29.99,East,89,0.0,0.0,80,0.00,FEW,,0.00,18.0,WeatherDisplay:10.37,2013-06-23 03:46:00,
2013-06-23 05:47:00,69.6,63.2,29.99,East,89,0.0,0.0,80,0.00,FEW,,0.00,23.0,WeatherDisplay:10.37,2013-06-23 03:47:00,
2013-06-23 05:48:00,69.6,63.2,29.98,East,89,0.0,0.0,80,0.00,FEW,,0.00,25.0,WeatherDisplay:10.37,2013-06-23 03:48:00,
2013-06-23 05:50:00,69.6,63.2,29.99,ENE,78,2.3,2.3,80,0.00,FEW,,0.00,25.0,WeatherDisplay:10.37,2013-06-23 03:50:00,
2013-06-23 05:51:00,69.6,63.2,29.98,ENE,78,2.3,2.3,80,0.00,FEW,,0.00,26.0,WeatherDisplay:10.37,2013-06-23 03:51:00,
2013-06-23 05:52:00,69.6,63.2,29.98,ENE,78,1.1,1.1,80,0.00,FEW,,0.00,28.0,WeatherDisplay:10.37,2013-06-23 03:52:00,
2013-06-23 05:53:00,69.6,63.2,29.99,ENE,78,1.1,0.0,80,0.00,FEW,,0.00,28.0,WeatherDisplay:10.37,2013-06-23 03:53:00,
2013-06-23 05:55:00,69.6,63.2,29.99,ENE,78,0.0,0.0,80,0.00,FEW,,0.00,26.0,WeatherDisplay:10.37,2013-06-23 03:55:00,
2013-06-23 05:56:00,69.6,63.2,29.98,ENE,78,0.0,0.0,80,0.00,FEW,,0.00,25.0,WeatherDisplay:10.37,2013-06-23 03:56:00,
2013-06-23 05:58:00,69.6,63.2,29.99,ENE,78,0.0,0.0,80,0.00,FEW,,0.00,23.0,WeatherDisplay:10.37,2013-06-23 03:58:00,
2013-06-23 06:00:00,69.7,63.3,29.99,ENE,78,0.0,0.0,80,0.00,FEW,,0.00,21.0,WeatherDisplay:10.37,2013-06-23 04:00:00,
2013-06-23 06:01:00,69.7,63.3,29.99,ENE,78,0.0,0.0,80,0.00,FEW,,0.00,21.0,WeatherDisplay:10.37,2013-06-23 04:01:00,
2013-06-23 06:06:00,69.7,63.3,29.99,ENE,78,0.0,0.0,80,0.00,FEW,,0.00,19.0,WeatherDisplay:10.37,2013-06-23 04:06:00,
2013-06-23 06:11:00,69.7,63.3,29.99,ENE,78,0.0,0.0,80,0.00,FEW,,0.00,18.0,WeatherDisplay:10.37,2013-06-23 04:11:00,
2013-06-23 06:16:00,69.8,63.3,29.99,ENE,78,0.0,0.0,80,0.00,SCT,,0.00,16.0,WeatherDisplay:10.37,2013-06-23 04:16:00,
2013-06-23 06:17:00,69.8,63.3,29.99,ENE,78,0.0,0.0,80,0.00,SCT,,0.00,16.0,WeatherDisplay:10.37,2013-06-23 04:17:00,
2013-06-23 06:21:00,69.8,63.3,29.98,ENE,78,0.0,0.0,80,0.00,SCT,,0.00,19.0,WeatherDisplay:10.37,2013-06-23 04:21:00,
2013-06-23 06:22:00,69.8,63.3,29.98,ENE,78,0.0,0.0,80,0.00,SCT,,0.00,19.0,WeatherDisplay:10.37,2013-06-23 04:22:00,
2013-06-23 06:26:00,69.9,63.4,29.99,East,86,1.1,0.0,80,0.00,SCT,,0.00,25.0,WeatherDisplay:10.37,2013-06-23 04:26:00,
2013-06-23 06:27:00,69.9,63.4,29.99,East,86,0.0,0.0,80,0.00,SCT,,0.00,25.0,WeatherDisplay:10.37,2013-06-23 04:27:00,
2013-06-23 06:31:00,70.0,63.5,29.99,East,85,3.5,3.5,80,0.00,SCT,,0.00,37.0,WeatherDisplay:10.37,2013-06-23 04:31:00,
2013-06-23 06:32:00,70.0,63.5,29.99,East,82,3.5,3.5,80,0.00,FEW,,0.00,37.0,WeatherDisplay:10.37,2013-06-23 04:32:00,
2013-06-23 06:36:00,70.1,63.3,29.99,East,80,0.0,0.0,79,0.00,FEW,,0.00,42.0,WeatherDisplay:10.37,2013-06-23 04:36:00,
2013-06-23 06:37:00,70.1,63.3,29.99,East,80,1.1,0.0,79,0.00,FEW,,0.00,44.0,WeatherDisplay:10.37,2013-06-23 04:37:00,
2013-06-23 06:41:00,70.3,63.5,29.98,East,101,3.5,3.5,79,0.00,FEW,,0.00,46.0,WeatherDisplay:10.37,2013-06-23 04:41:00,
2013-06-23 06:42:00,70.3,63.5,29.98,East,86,3.5,3.5,79,0.00,FEW,,0.00,46.0,WeatherDisplay:10.37,2013-06-23 04:42:00,
2013-06-23 06:43:00,70.4,63.6,29.98,East,89,4.6,4.6,79,0.00,FEW,,0.00,46.0,WeatherDisplay:10.37,2013-06-23 04:43:00,
2013-06-23 06:46:00,70.5,63.3,29.98,East,86,5.8,5.8,78,0.00,FEW,,0.00,42.0,WeatherDisplay:10.37,2013-06-23 04:46:00,
2013-06-23 06:47:00,70.6,63.4,29.98,East,94,5.8,5.8,78,0.00,FEW,,0.00,40.0,WeatherDisplay:10.37,2013-06-23 04:47:00,
2013-06-23 06:48:00,70.6,63.4,29.98,East,88,5.8,5.8,78,0.00,FEW,,0.00,40.0,WeatherDisplay:10.37,2013-06-23 04:48:00,
2013-06-23 06:51:00,70.8,63.6,29.98,East,84,2.0,2.0,78,0.00,FEW,,0.00,40.0,WeatherDisplay:10.37,2013-06-23 04:51:00,
2013-06-23 06:52:00,70.8,63.6,29.98,East,90,2.3,2.3,78,0.00,FEW,,0.00,37.0,WeatherDisplay:10.37,2013-06-23 04:52:00,
2013-06-23 06:53:00,70.9,63.7,29.98,East,95,3.0,3.0,78,0.00,FEW,,0.00,37.0,WeatherDisplay:10.37,2013-06-23 04:53:00,
2013-06-23 06:56:00,70.9,63.7,29.99,East,96,3.5,3.5,78,0.00,SCT,,0.00,39.0,WeatherDisplay:10.37,2013-06-23 04:56:00,
2013-06-23 06:57:00,71.0,63.8,29.99,East,92,2.3,2.3,78,0.00,SCT,,0.00,40.0,WeatherDisplay:10.37,2013-06-23 04:57:00,
2013-06-23 06:58:00,71.0,63.8,29.99,East,92,2.3,2.3,78,0.00,SCT,,0.00,40.0,WeatherDisplay:10.37,2013-06-23 04:58:00,
2013-06-23 07:01:00,71.1,63.9,29.99,East,95,2.3,2.3,78,0.00,SCT,,0.00,40.0,WeatherDisplay:10.37,2013-06-23 05:01:00,
2013-06-23 07:03:00,71.1,63.9,29.99,ENE,73,2.3,2.3,78,0.00,SCT,,0.00,37.0,WeatherDisplay:10.37,2013-06-23 05:03:00,
2013-06-23 07:06:00,71.2,64.0,29.99,SE,133,3.0,3.0,78,0.00,SCT,,0.00,32.0,WeatherDisplay:10.37,2013-06-23 05:06:00,
2013-06-23 07:08:00,71.2,63.6,29.99,ESE,107,4.6,4.6,77,0.00,SCT,,0.00,30.0,WeatherDisplay:10.37,2013-06-23 05:08:00,
2013-06-23 07:11:00,71.3,63.7,30.00,SSE,157,4.6,4.6,77,0.00,SCT,,0.00,26.0,WeatherDisplay:10.37,2013-06-23 05:11:00,
2013-06-23 07:13:00,71.3,63.7,29.99,SSE,150,4.0,4.0,77,0.00,SCT,,0.00,26.0,WeatherDisplay:10.37,2013-06-23 05:13:00,
2013-06-23 07:14:00,71.3,63.7,29.99,SE,128,4.0,4.0,77,0.00,BKN,,0.00,26.0,WeatherDisplay:10.37,2013-06-23 05:14:00,
2013-06-23 07:16:00,71.4,63.8,29.99,ESE,117,3.5,3.5,77,0.00,BKN,,0.00,28.0,WeatherDisplay:10.37,2013-06-23 05:16:00,
2013-06-23 07:18:00,71.4,63.8,29.99,ESE,105,3.5,3.5,77,0.00,BKN,,0.00,33.0,WeatherDisplay:10.37,2013-06-23 05:18:00,
2013-06-23 07:19:00,71.4,63.4,29.99,ESE,107,4.0,4.0,76,0.00,BKN,,0.00,33.0,WeatherDisplay:10.37,2013-06-23 05:19:00,
2013-06-23 07:22:00,71.5,63.5,29.99,ENE,74,4.6,4.6,76,0.00,BKN,,0.00,37.0,WeatherDisplay:10.37,2013-06-23 05:22:00,
2013-06-23 07:23:00,71.5,63.5,29.99,ENE,77,3.5,3.5,76,0.00,BKN,,0.00,37.0,WeatherDisplay:10.37,2013-06-23 05:23:00,
2013-06-23 07:24:00,71.5,63.5,29.99,ENE,77,1.1,0.0,76,0.00,BKN,,0.00,37.0,WeatherDisplay:10.37,2013-06-23 05:24:00,
2013-06-23 07:27:00,71.5,63.5,29.99,SE,126,0.0,0.0,76,0.00,BKN,,0.00,39.0,WeatherDisplay:10.37,2013-06-23 05:27:00,
2013-06-23 07:28:00,71.5,63.5,29.99,East,93,0.0,0.0,76,0.00,BKN,,0.00,40.0,WeatherDisplay:10.37,2013-06-23 05:28:00,
2013-06-23 07:29:00,71.5,63.5,29.99,East,93,1.1,0.0,76,0.00,SCT,,0.00,44.0,WeatherDisplay:10.37,2013-06-23 05:29:00,
2013-06-23 07:32:00,71.6,63.6,29.99,East,93,0.0,0.0,76,0.00,SCT,,0.00,53.0,WeatherDisplay:10.37,2013-06-23 05:32:00,
2013-06-23 07:34:00,71.6,63.6,29.99,NE,51,2.3,2.3,76,0.00,SCT,,0.00,65.0,WeatherDisplay:10.37,2013-06-23 05:34:00,
2013-06-23 07:37:00,71.6,63.6,29.99,NNE,15,0.0,0.0,76,0.00,SCT,,0.00,76.0,WeatherDisplay:10.37,2013-06-23 05:37:00,
2013-06-23 07:39:00,71.7,63.7,29.99,WNW,285,1.1,0.0,76,0.00,SCT,,0.00,79.0,WeatherDisplay:10.37,2013-06-23 05:39:00,
2013-06-23 07:40:00,71.7,63.7,29.99,WNW,285,3.0,3.0,76,0.00,SCT,,0.00,79.0,WeatherDisplay:10.37,2013-06-23 05:40:00,
2013-06-23 07:42:00,71.7,63.7,30.00,West,277,6.0,6.0,76,0.00,SCT,,0.00,79.0,WeatherDisplay:10.37,2013-06-23 05:42:00,
2013-06-23 07:44:00,71.7,63.7,30.00,West,280,8.1,8.1,76,0.00,FEW,,0.00,77.0,WeatherDisplay:10.37,2013-06-23 05:44:00,
2013-06-23 07:45:00,71.7,63.7,30.00,West,267,6.9,6.9,76,0.00,FEW,,0.00,77.0,WeatherDisplay:10.37,2013-06-23 05:45:00,
2013-06-23 07:47:00,71.7,63.7,30.00,West,261,8.1,8.1,76,0.00,FEW,,0.00,67.0,WeatherDisplay:10.37,2013-06-23 05:47:00,
2013-06-23 07:49:00,71.6,63.6,30.00,West,265,8.1,8.1,76,0.00,SCT,,0.00,63.0,WeatherDisplay:10.37,2013-06-23 05:49:00,
2013-06-23 07:50:00,71.6,63.6,30.00,WSW,240,6.9,6.9,76,0.00,SCT,,0.00,60.0,WeatherDisplay:10.37,2013-06-23 05:50:00,
2013-06-23 07:52:00,71.6,63.3,30.00,West,274,4.6,4.6,75,0.00,SCT,,0.00,58.0,WeatherDisplay:10.37,2013-06-23 05:52:00,
2013-06-23 07:54:00,71.5,63.2,30.00,WSW,239,8.0,8.0,75,0.00,SCT,,0.00,69.0,WeatherDisplay:10.37,2013-06-23 05:54:00,
2013-06-23 07:55:00,71.6,63.6,30.01,WSW,241,9.2,9.2,76,0.00,SCT,,0.00,72.0,WeatherDisplay:10.37,2013-06-23 05:55:00,
2013-06-23 07:57:00,71.5,63.5,30.01,SW,220,6.9,6.9,76,0.00,SCT,,0.00,74.0,WeatherDisplay:10.37,2013-06-23 05:57:00,
2013-06-23 07:59:00,71.5,63.5,30.01,SW,224,5.8,5.8,76,0.00,SCT,,0.00,62.0,WeatherDisplay:10.37,2013-06-23 05:59:00,
2013-06-23 08:00:00,71.5,63.5,30.01,SW,227,5.8,5.8,76,0.00,SCT,,0.00,62.0,WeatherDisplay:10.37,2013-06-23 06:00:00,
2013-06-23 08:02:00,71.4,63.4,30.01,SW,214,3.5,3.5,76,0.00,SCT,,0.00,44.0,WeatherDisplay:10.37,2013-06-23 06:02:00,
2013-06-23 08:03:00,71.3,63.3,30.01,SSW,204,3.5,3.5,76,0.00,SCT,,0.00,39.0,WeatherDisplay:10.37,2013-06-23 06:03:00,
2013-06-23 08:05:00,71.3,63.3,30.01,SSW,209,0.0,0.0,76,0.00,SCT,,0.00,30.0,WeatherDisplay:10.37,2013-06-23 06:05:00,
2013-06-23 08:06:00,71.3,63.3,30.01,SSW,209,0.0,0.0,76,0.00,SCT,,0.00,28.0,WeatherDisplay:10.37,2013-06-23 06:06:00,
2013-06-23 08:07:00,71.2,63.2,30.01,SSW,209,0.0,0.0,76,0.00,BKN,,0.00,23.0,WeatherDisplay:10.37,2013-06-23 06:07:00,
2013-06-23 08:08:00,71.3,63.3,30.00,SSW,209,0.0,0.0,76,0.00,BKN,,0.00,23.0,WeatherDisplay:10.37,2013-06-23 06:08:00,
2013-06-23 08:10:00,71.2,63.2,30.01,SSW,209,0.0,0.0,76,0.00,BKN,,0.00,21.0,WeatherDisplay:10.37,2013-06-23 06:10:00,
2013-06-23 08:11:00,71.2,63.2,30.00,SSW,209,0.0,0.0,76,0.00,BKN,,0.00,23.0,WeatherDisplay:10.37,2013-06-23 06:11:00,
2013-06-23 08:12:00,71.2,63.2,30.00,SSW,209,0.0,0.0,76,0.00,BKN,,0.00,25.0,WeatherDisplay:10.37,2013-06-23 06:12:00,
2013-06-23 08:13:00,71.2,63.2,30.00,SSW,209,0.0,0.0,76,0.00,BKN,,0.00,25.0,WeatherDisplay:10.37,2013-06-23 06:13:00,
2013-06-23 08:15:00,71.2,63.2,30.00,SSW,205,0.0,0.0,76,0.00,BKN,,0.00,26.0,WeatherDisplay:10.37,2013-06-23 06:15:00,
2013-06-23 08:17:00,71.2,63.2,30.00,SSW,205,0.0,0.0,76,0.00,BKN,,0.00,30.0,WeatherDisplay:10.37,2013-06-23 06:17:00,
2013-06-23 08:18:00,71.2,63.2,30.00,SSW,205,0.0,0.0,76,0.00,BKN,,0.00,30.0,WeatherDisplay:10.37,2013-06-23 06:18:00,
2013-06-23 08:20:00,71.2,63.2,30.00,SSW,205,0.0,0.0,76,0.00,BKN,,0.00,33.0,WeatherDisplay:10.37,2013-06-23 06:20:00,
2013-06-23 08:21:00,71.2,63.2,30.00,SSW,205,0.0,0.0,76,0.00,BKN,,0.00,37.0,WeatherDisplay:10.37,2013-06-23 06:21:00,
2013-06-23 08:22:00,71.1,63.1,30.00,SSW,204,0.0,0.0,76,0.00,BKN,,0.00,44.0,WeatherDisplay:10.37,2013-06-23 06:22:00,
2013-06-23 08:23:00,71.1,63.1,30.00,SSW,204,0.0,0.0,76,0.00,BKN,,0.00,44.0,WeatherDisplay:10.37,2013-06-23 06:23:00,
2013-06-23 08:25:00,71.1,63.5,30.00,ESE,117,3.5,3.5,77,0.00,BKN,,0.00,60.0,WeatherDisplay:10.37,2013-06-23 06:25:00,
2013-06-23 08:26:00,71.1,63.5,30.00,ESE,117,3.5,3.5,77,0.00,BKN,,0.00,63.0,WeatherDisplay:10.37,2013-06-23 06:26:00,
2013-06-23 08:27:00,71.1,63.5,30.00,ESE,117,3.5,3.5,77,0.00,BKN,,0.00,70.0,WeatherDisplay:10.37,2013-06-23 06:27:00,
2013-06-23 08:28:00,71.0,63.4,30.00,ESE,123,3.5,3.5,77,0.00,BKN,,0.00,70.0,WeatherDisplay:10.37,2013-06-23 06:28:00,
2013-06-23 08:31:00,71.0,63.4,30.00,SE,125,4.6,4.6,77,0.00,BKN,,0.00,84.0,WeatherDisplay:10.37,2013-06-23 06:31:00,
2013-06-23 08:32:00,71.0,63.4,30.00,SE,125,6.9,6.9,77,0.00,BKN,,0.00,90.0,WeatherDisplay:10.37,2013-06-23 06:32:00,
2013-06-23 08:33:00,71.0,63.4,30.00,SE,134,6.9,6.9,77,0.00,BKN,,0.00,90.0,WeatherDisplay:10.37,2013-06-23 06:33:00,
2013-06-23 08:36:00,70.9,63.3,30.00,ESE,115,4.6,4.6,77,0.00,SCT,,0.00,105.0,WeatherDisplay:10.37,2013-06-23 06:36:00,
2013-06-23 08:38:00,70.9,63.3,30.00,WSW,242,0.0,0.0,77,0.00,SCT,,0.00,116.0,WeatherDisplay:10.37,2013-06-23 06:38:00,
2013-06-23 08:39:00,70.9,63.3,30.00,WNW,282,0.0,0.0,77,0.00,SCT,,0.00,118.0,WeatherDisplay:10.37,2013-06-23 06:39:00,
2013-06-23 08:41:00,71.0,63.4,30.00,North,355,3.5,3.5,77,0.00,SCT,,0.00,121.0,WeatherDisplay:10.37,2013-06-23 06:41:00,
2013-06-23 08:43:00,71.0,63.4,30.00,NNE,27,0.0,0.0,77,0.00,SCT,,0.00,132.0,WeatherDisplay:10.37,2013-06-23 06:43:00,
2013-06-23 08:44:00,71.1,63.5,30.00,NNE,28,0.0,0.0,77,0.00,SCT,,0.00,132.0,WeatherDisplay:10.37,2013-06-23 06:44:00,
2013-06-23 08:45:00,71.1,63.5,30.00,NE,35,1.1,1.1,77,0.00,SCT,,0.00,137.0,WeatherDisplay:10.37,2013-06-23 06:45:00,
2013-06-23 08:46:00,71.1,63.9,30.00,SE,125,3.5,3.5,78,0.00,SCT,,0.00,139.0,WeatherDisplay:10.37,2013-06-23 06:46:00,
2013-06-23 08:49:00,71.2,64.0,30.00,East,86,0.0,0.0,78,0.00,FEW,,0.00,141.0,WeatherDisplay:10.37,2013-06-23 06:49:00,
2013-06-23 08:50:00,71.2,64.0,30.00,East,86,0.0,0.0,78,0.00,FEW,,0.00,141.0,WeatherDisplay:10.37,2013-06-23 06:50:00,
2013-06-23 08:51:00,71.2,64.0,30.00,East,100,2.0,2.0,78,0.00,FEW,,0.00,142.0,WeatherDisplay:10.37,2013-06-23 06:51:00,
2013-06-23 08:54:00,71.3,64.1,30.00,East,80,4.6,4.6,78,0.00,FEW,,0.00,151.0,WeatherDisplay:10.37,2013-06-23 06:54:00,
2013-06-23 08:55:00,71.4,64.2,30.00,East,90,3.5,3.5,78,0.00,FEW,,0.00,153.0,WeatherDisplay:10.37,2013-06-23 06:55:00,
2013-06-23 08:56:00,71.4,64.2,30.00,ESE,112,3.5,3.5,78,0.00,FEW,,0.00,144.0,WeatherDisplay:10.37,2013-06-23 06:56:00,
2013-06-23 08:59:00,71.6,64.0,30.00,East,86,4.6,4.6,77,0.00,FEW,,0.00,142.0,WeatherDisplay:10.37,2013-06-23 06:59:00,
2013-06-23 09:00:00,71.6,64.4,30.00,East,90,3.5,3.5,78,0.00,FEW,,0.00,142.0,WeatherDisplay:10.37,2013-06-23 07:00:00,
2013-06-23 09:01:00,71.7,64.5,30.00,East,88,4.6,4.6,78,0.00,FEW,,0.00,142.0,WeatherDisplay:10.37,2013-06-23 07:01:00,
2013-06-23 09:04:00,71.8,64.2,30.00,East,88,2.3,0.0,77,0.00,FEW,,0.00,148.0,WeatherDisplay:10.37,2013-06-23 07:04:00,
2013-06-23 09:06:00,71.9,64.3,30.00,East,92,0.0,0.0,77,0.00,FEW,,0.00,142.0,WeatherDisplay:10.37,2013-06-23 07:06:00,
2013-06-23 09:07:00,72.0,64.4,30.00,SE,138,3.5,3.5,77,0.00,FEW,,0.00,127.0,WeatherDisplay:10.37,2013-06-23 07:07:00,
2013-06-23 09:10:00,72.1,64.5,30.00,SE,126,3.5,3.5,77,0.00,SCT,,0.00,123.0,WeatherDisplay:10.37,2013-06-23 07:10:00,
2013-06-23 09:11:00,72.1,64.1,30.00,SE,137,4.6,4.6,76,0.00,SCT,,0.00,146.0,WeatherDisplay:10.37,2013-06-23 07:11:00,
2013-06-23 09:12:00,72.1,64.1,30.00,ESE,115,3.5,3.5,76,0.00,SCT,,0.00,153.0,WeatherDisplay:10.37,2013-06-23 07:12:00,
2013-06-23 09:15:00,72.2,64.2,30.00,ESE,117,6.9,6.9,76,0.00,FEW,,0.00,220.0,WeatherDisplay:10.37,2013-06-23 07:15:00,
2013-06-23 09:16:00,72.2,64.2,30.00,ESE,115,6.9,6.9,76,0.00,FEW,,0.00,287.0,WeatherDisplay:10.37,2013-06-23 07:16:00,
2013-06-23 09:17:00,72.2,64.2,30.00,SE,127,3.5,3.5,76,0.00,FEW,,0.00,287.0,WeatherDisplay:10.37,2013-06-23 07:17:00,
2013-06-23 09:20:00,72.5,64.5,30.00,SE,126,7.0,7.0,76,0.00,FEW,,0.00,241.0,WeatherDisplay:10.37,2013-06-23 07:20:00,
2013-06-23 09:21:00,72.6,64.6,30.01,SE,136,8.1,8.1,76,0.00,FEW,,0.00,241.0,WeatherDisplay:10.37,2013-06-23 07:21:00,
2013-06-23 09:22:00,72.6,64.6,30.01,SE,130,8.1,8.1,76,0.00,FEW,,0.00,241.0,WeatherDisplay:10.37,2013-06-23 07:22:00,
2013-06-23 09:25:00,72.9,64.9,30.01,ESE,123,4.6,4.6,76,0.00,FEW,,0.00,104.0,WeatherDisplay:10.37,2013-06-23 07:25:00,
2013-06-23 09:26:00,72.9,64.9,30.01,ESE,119,4.0,4.0,76,0.00,FEW,,0.00,102.0,WeatherDisplay:10.37,2013-06-23 07:26:00,
2013-06-23 09:27:00,73.0,65.0,30.01,SE,132,4.6,4.6,76,0.00,FEW,,0.00,109.0,WeatherDisplay:10.37,2013-06-23 07:27:00,
2013-06-23 09:30:00,73.2,64.8,30.01,SE,128,4.6,4.6,75,0.00,SCT,,0.00,118.0,WeatherDisplay:10.37,2013-06-23 07:30:00,
2013-06-23 09:31:00,73.3,65.3,30.01,SE,131,3.5,3.5,76,0.00,SCT,,0.00,118.0,WeatherDisplay:10.37,2013-06-23 07:31:00,
2013-06-23 09:32:00,73.5,65.5,30.01,SE,132,2.3,0.0,76,0.00,SCT,,0.00,127.0,WeatherDisplay:10.37,2013-06-23 07:32:00,
2013-06-23 09:35:00,74.2,65.8,30.01,South,186,3.5,3.5,75,0.00,SCT,,0.00,132.0,WeatherDisplay:10.37,2013-06-23 07:35:00,
2013-06-23 09:36:00,74.2,65.8,30.01,South,186,3.5,3.5,75,0.00,SCT,,0.00,132.0,WeatherDisplay:10.37,2013-06-23 07:36:00,
2013-06-23 09:37:00,74.7,65.9,30.01,South,188,7.0,7.0,74,0.00,SCT,,0.00,128.0,WeatherDisplay:10.37,2013-06-23 07:37:00,
2013-06-23 09:38:00,74.7,65.9,30.01,South,186,6.9,6.9,74,0.00,SCT,,0.00,128.0,WeatherDisplay:10.37,2013-06-23 07:38:00,
2013-06-23 09:41:00,75.2,65.9,30.01,SSE,155,0.0,0.0,73,0.00,SCT,,0.00,204.0,WeatherDisplay:10.37,2013-06-23 07:41:00,
2013-06-23 09:42:00,75.3,66.0,30.00,SE,133,5.0,5.0,73,0.00,SCT,,0.00,130.0,WeatherDisplay:10.37,2013-06-23 07:42:00,
2013-06-23 09:43:00,75.4,66.1,30.00,SE,134,5.8,5.8,73,0.00,SCT,,0.00,130.0,WeatherDisplay:10.37,2013-06-23 07:43:00,
2013-06-23 09:46:00,75.6,65.9,30.00,SW,215,3.5,3.5,72,0.00,SCT,,0.00,130.0,WeatherDisplay:10.37,2013-06-23 07:46:00,
2013-06-23 09:47:00,75.8,66.1,30.00,South,169,5.8,5.8,72,0.00,FEW,,0.00,450.0,WeatherDisplay:10.37,2013-06-23 07:47:00,
2013-06-23 09:48:00,75.9,66.2,30.01,South,186,5.8,5.8,72,0.00,FEW,,0.00,520.0,WeatherDisplay:10.37,2013-06-23 07:48:00,
2013-06-23 09:51:00,76.0,65.9,30.01,SW,225,5.8,5.8,71,0.00,FEW,,0.00,529.0,WeatherDisplay:10.37,2013-06-23 07:51:00,
2013-06-23 09:53:00,76.4,66.7,30.01,SSE,164,1.1,1.1,72,0.00,FEW,,0.00,680.0,WeatherDisplay:10.37,2013-06-23 07:53:00,
2013-06-23 09:56:00,76.7,66.2,30.01,South,180,1.1,1.1,70,0.00,FEW,,0.00,596.0,WeatherDisplay:10.37,2013-06-23 07:56:00,
2013-06-23 09:58:00,76.8,66.3,30.01,SSW,205,4.0,4.0,70,0.00,FEW,,0.00,582.0,WeatherDisplay:10.37,2013-06-23 07:58:00,
2013-06-23 09:59:00,76.9,66.4,30.01,South,186,6.9,6.9,70,0.00,FEW,,0.00,499.0,WeatherDisplay:10.37,2013-06-23 07:59:00,
2013-06-23 10:01:00,77.0,66.5,30.00,SE,140,8.1,8.1,70,0.00,FEW,,0.00,401.0,WeatherDisplay:10.37,2013-06-23 08:01:00,
2013-06-23 10:03:00,77.1,66.6,30.01,SE,136,5.8,5.8,70,0.00,FEW,,0.00,102.0,WeatherDisplay:10.37,2013-06-23 08:03:00,
2013-06-23 10:04:00,77.1,66.6,30.00,SSE,159,9.2,9.2,70,0.00,FEW,,0.00,98.0,WeatherDisplay:10.37,2013-06-23 08:04:00,
2013-06-23 10:06:00,77.2,66.2,30.00,SSW,211,5.0,5.0,69,0.00,FEW,,0.00,97.0,WeatherDisplay:10.37,2013-06-23 08:06:00,
2013-06-23 10:08:00,77.2,66.2,30.00,SE,128,8.1,8.1,69,0.00,FEW,,0.00,95.0,WeatherDisplay:10.37,2013-06-23 08:08:00,
2013-06-23 10:09:00,77.2,66.2,30.00,ESE,123,8.1,8.1,69,0.00,SCT,,0.00,93.0,WeatherDisplay:10.37,2013-06-23 08:09:00,
2013-06-23 10:12:00,77.2,65.8,30.00,SSE,161,6.9,6.9,68,0.00,BKN,,0.00,120.0,WeatherDisplay:10.37,2013-06-23 08:12:00,
2013-06-23 10:13:00,77.2,65.4,30.00,South,176,8.1,8.1,67,0.00,BKN,,0.00,120.0,WeatherDisplay:10.37,2013-06-23 08:13:00,
2013-06-23 10:14:00,77.1,65.3,30.01,SSW,213,3.5,3.5,67,0.00,BKN,,0.00,120.0,WeatherDisplay:10.37,2013-06-23 08:14:00,
2013-06-23 10:17:00,77.2,65.4,30.01,ESE,117,8.1,8.1,67,0.00,SCT,,0.00,705.0,WeatherDisplay:10.37,2013-06-23 08:17:00,
2013-06-23 10:18:00,77.3,65.5,30.00,East,87,6.9,6.9,67,0.00,FEW,,0.00,710.0,WeatherDisplay:10.37,2013-06-23 08:18:00,
2013-06-23 10:19:00,77.3,65.5,30.00,East,88,4.6,4.6,67,0.00,FEW,,0.00,715.0,WeatherDisplay:10.37,2013-06-23 08:19:00,
2013-06-23 10:22:00,77.8,66.0,30.00,South,171,6.9,6.9,67,0.00,FEW,,0.00,703.0,WeatherDisplay:10.37,2013-06-23 08:22:00,
2013-06-23 10:23:00,78.0,65.3,30.00,South,180,5.8,5.8,65,0.00,FEW,,0.00,717.0,WeatherDisplay:10.37,2013-06-23 08:23:00,
2013-06-23 10:24:00,77.9,65.2,30.00,South,187,4.6,4.6,65,0.00,FEW,,0.00,719.0,WeatherDisplay:10.37,2013-06-23 08:24:00,
2013-06-23 10:27:00,77.9,65.2,30.01,SW,228,6.9,6.9,65,0.00,FEW,,0.00,719.0,WeatherDisplay:10.37,2013-06-23 08:27:00,
2013-06-23 10:28:00,77.8,64.6,30.01,SW,218,7.0,7.0,64,0.00,FEW,,0.00,719.0,WeatherDisplay:10.37,2013-06-23 08:28:00,
2013-06-23 10:29:00,77.7,64.5,30.01,SW,216,9.2,9.2,64,0.00,FEW,,0.00,719.0,WeatherDisplay:10.37,2013-06-23 08:29:00,
2013-06-23 10:32:00,77.7,64.5,30.01,South,177,6.9,6.9,64,0.00,FEW,,0.00,729.0,WeatherDisplay:10.37,2013-06-23 08:32:00,
2013-06-23 10:33:00,77.8,64.6,30.00,South,190,5.0,5.0,64,0.00,FEW,,0.00,733.0,WeatherDisplay:10.37,2013-06-23 08:33:00,
2013-06-23 10:34:00,77.7,64.5,30.00,South,186,4.6,4.6,64,0.00,FEW,,0.00,737.0,WeatherDisplay:10.37,2013-06-23 08:34:00,
2013-06-23 10:37:00,77.8,64.2,30.00,SE,140,7.0,7.0,63,0.00,FEW,,0.00,740.0,WeatherDisplay:10.37,2013-06-23 08:37:00,
2013-06-23 10:38:00,77.8,64.2,30.00,SE,133,6.9,6.9,63,0.00,FEW,,0.00,740.0,WeatherDisplay:10.37,2013-06-23 08:38:00,
2013-06-23 10:39:00,77.8,63.7,30.00,SE,132,5.8,5.8,62,0.00,FEW,,0.00,738.0,WeatherDisplay:10.37,2013-06-23 08:39:00,
2013-06-23 10:43:00,78.4,64.3,30.00,SW,222,5.8,5.8,62,0.00,FEW,,0.00,754.0,WeatherDisplay:10.37,2013-06-23 08:43:00,
2013-06-23 10:44:00,78.5,63.9,30.00,SSW,205,5.8,5.8,61,0.00,FEW,,0.00,759.0,WeatherDisplay:10.37,2013-06-23 08:44:00,
2013-06-23 10:48:00,78.9,64.3,30.00,SSW,196,6.9,6.9,61,0.00,FEW,,0.00,766.0,WeatherDisplay:10.37,2013-06-23 08:48:00,
2013-06-23 10:49:00,79.0,64.4,30.00,South,180,6.9,6.9,61,0.00,FEW,,0.00,744.0,WeatherDisplay:10.37,2013-06-23 08:49:00,
2013-06-23 10:50:00,79.1,64.5,30.00,South,180,0.0,0.0,61,0.00,FEW,,0.00,744.0,WeatherDisplay:10.37,2013-06-23 08:50:00,
2013-06-23 10:53:00,79.8,65.2,30.00,ESE,119,2.3,2.3,61,0.00,FEW,,0.00,766.0,WeatherDisplay:10.37,2013-06-23 08:53:00,
2013-06-23 10:54:00,80.0,64.9,30.00,SSW,208,3.5,3.5,60,0.00,FEW,,0.00,770.0,WeatherDisplay:10.37,2013-06-23 08:54:00,
2013-06-23 10:55:00,80.1,65.0,30.00,SSW,211,6.9,6.9,60,0.00,FEW,,0.00,770.0,WeatherDisplay:10.37,2013-06-23 08:55:00,
2013-06-23 10:58:00,80.2,64.6,30.00,South,180,4.6,4.6,59,0.00,FEW,,0.00,784.0,WeatherDisplay:10.37,2013-06-23 08:58:00,
2013-06-23 10:59:00,80.3,64.2,30.00,SSE,151,4.6,4.6,58,0.00,FEW,,0.00,786.0,WeatherDisplay:10.37,2013-06-23 08:59:00,
2013-06-23 11:00:00,80.3,64.2,30.00,SSE,151,1.1,1.1,58,0.00,FEW,,0.00,786.0,WeatherDisplay:10.37,2013-06-23 09:00:00,
2013-06-23 11:03:00,80.7,64.5,30.00,South,187,6.9,6.9,58,0.00,FEW,,0.00,788.0,WeatherDisplay:10.37,2013-06-23 09:03:00,
2013-06-23 11:05:00,80.7,64.1,30.00,South,175,3.5,3.5,57,0.00,FEW,,0.00,779.0,WeatherDisplay:10.37,2013-06-23 09:05:00,
2013-06-23 11:09:00,80.6,64.0,30.00,WSW,258,4.6,4.6,57,0.00,FEW,,0.00,795.0,WeatherDisplay:10.37,2013-06-23 09:09:00,
2013-06-23 11:10:00,80.6,64.5,30.00,WSW,246,5.0,5.0,58,0.00,FEW,,0.00,795.0,WeatherDisplay:10.37,2013-06-23 09:10:00,
2013-06-23 11:14:00,80.6,64.0,30.00,SE,139,3.5,3.5,57,0.00,FEW,,0.00,805.0,WeatherDisplay:10.37,2013-06-23 09:14:00,
2013-06-23 11:15:00,80.6,64.0,30.00,SSE,148,5.8,5.8,57,0.00,FEW,,0.00,810.0,WeatherDisplay:10.37,2013-06-23 09:15:00,
2013-06-23 11:19:00,80.8,64.1,29.99,ENE,78,3.0,3.0,57,0.00,FEW,,0.00,803.0,WeatherDisplay:10.37,2013-06-23 09:19:00,
2013-06-23 11:20:00,81.0,64.3,29.99,East,86,5.0,5.0,57,0.00,FEW,,0.00,809.0,WeatherDisplay:10.37,2013-06-23 09:20:00,
2013-06-23 11:21:00,81.1,64.4,29.99,East,85,8.1,8.1,57,0.00,FEW,,0.00,809.0,WeatherDisplay:10.37,2013-06-23 09:21:00,
2013-06-23 11:24:00,81.6,64.9,29.99,South,181,6.0,6.0,57,0.00,FEW,,0.00,786.0,WeatherDisplay:10.37,2013-06-23 09:24:00,
2013-06-23 11:25:00,81.7,65.0,29.99,SSE,157,6.9,6.9,57,0.00,FEW,,0.00,803.0,WeatherDisplay:10.37,2013-06-23 09:25:00,
2013-06-23 11:26:00,81.8,65.1,29.99,SSE,159,5.8,5.8,57,0.00,FEW,,0.00,803.0,WeatherDisplay:10.37,2013-06-23 09:26:00,
2013-06-23 11:29:00,82.0,65.3,29.99,SSW,194,9.2,9.2,57,0.00,FEW,,0.00,803.0,WeatherDisplay:10.37,2013-06-23 09:29:00,
2013-06-23 11:30:00,82.0,64.8,29.99,WSW,247,8.1,8.1,56,0.00,FEW,,0.00,782.0,WeatherDisplay:10.37,2013-06-23 09:30:00,
2013-06-23 11:31:00,81.9,65.2,29.99,SW,223,5.8,5.8,57,0.00,FEW,,0.00,782.0,WeatherDisplay:10.37,2013-06-23 09:31:00,
2013-06-23 11:34:00,82.0,65.3,29.99,WSW,247,2.3,2.3,57,0.00,FEW,,0.00,816.0,WeatherDisplay:10.37,2013-06-23 09:34:00,
2013-06-23 11:35:00,82.1,65.4,29.99,West,262,5.0,5.0,57,0.00,FEW,,0.00,788.0,WeatherDisplay:10.37,2013-06-23 09:35:00,
2013-06-23 11:36:00,82.1,65.4,29.99,West,280,6.9,6.9,57,0.00,FEW,,0.00,788.0,WeatherDisplay:10.37,2013-06-23 09:36:00,
2013-06-23 11:40:00,81.7,64.5,29.99,SSW,205,11.5,11.5,56,0.00,FEW,,0.00,861.0,WeatherDisplay:10.37,2013-06-23 09:40:00,
2013-06-23 11:41:00,81.6,64.9,29.99,SW,219,10.4,10.4,57,0.00,FEW,,0.00,854.0,WeatherDisplay:10.37,2013-06-23 09:41:00,
2013-06-23 11:42:00,81.5,64.8,29.99,WSW,255,10.4,10.4,57,0.00,FEW,,0.00,842.0,WeatherDisplay:10.37,2013-06-23 09:42:00,
2013-06-23 11:45:00,81.4,65.2,29.99,SSW,205,3.0,3.0,58,0.00,FEW,,0.00,846.0,WeatherDisplay:10.37,2013-06-23 09:45:00,
2013-06-23 11:46:00,81.4,65.2,29.99,SSW,209,4.6,4.6,58,0.00,FEW,,0.00,835.0,WeatherDisplay:10.37,2013-06-23 09:46:00,
2013-06-23 11:48:00,81.5,65.3,29.99,SSW,198,4.6,4.6,58,0.00,FEW,,0.00,846.0,WeatherDisplay:10.37,2013-06-23 09:48:00,
2013-06-23 11:50:00,82.1,64.8,29.99,SSE,163,11.5,11.5,56,0.00,FEW,,0.00,849.0,WeatherDisplay:10.37,2013-06-23 09:50:00,
2013-06-23 11:51:00,82.1,64.8,29.98,SSE,163,11.5,11.5,56,0.00,FEW,,0.00,849.0,WeatherDisplay:10.37,2013-06-23 09:51:00,
2013-06-23 11:54:00,82.1,64.8,29.98,SE,146,9.2,9.2,56,0.00,FEW,,0.00,882.0,WeatherDisplay:10.37,2013-06-23 09:54:00,
2013-06-23 11:55:00,82.3,64.0,29.98,WSW,238,8.1,8.1,54,0.00,FEW,,0.00,882.0,WeatherDisplay:10.37,2013-06-23 09:55:00,
2013-06-23 11:56:00,82.4,64.1,29.99,SSW,209,9.2,9.2,54,0.00,FEW,,0.00,882.0,WeatherDisplay:10.37,2013-06-23 09:56:00,
2013-06-23 11:59:00,82.5,64.7,29.98,South,186,10.4,10.4,55,0.00,FEW,,0.00,856.0,WeatherDisplay:10.37,2013-06-23 09:59:00,
2013-06-23 12:00:00,82.5,64.7,29.98,South,186,7.0,7.0,55,0.00,FEW,,0.00,856.0,WeatherDisplay:10.37,2013-06-23 10:00:00,
2013-06-23 12:01:00,82.6,64.8,29.99,South,169,7.0,7.0,55,0.00,FEW,,0.00,856.0,WeatherDisplay:10.37,2013-06-23 10:01:00,
2013-06-23 12:04:00,82.6,65.3,29.98,SW,236,10.4,10.4,56,0.00,FEW,,0.00,856.0,WeatherDisplay:10.37,2013-06-23 10:04:00,
2013-06-23 12:06:00,82.5,65.2,29.98,SSW,201,7.0,7.0,56,0.00,FEW,,0.00,888.0,WeatherDisplay:10.37,2013-06-23 10:06:00,
2013-06-23 12:07:00,82.5,64.7,29.98,SW,230,7.0,7.0,55,0.00,FEW,,0.00,888.0,WeatherDisplay:10.37,2013-06-23 10:07:00,
2013-06-23 12:09:00,82.4,64.1,29.98,SSW,202,11.5,11.5,54,0.00,FEW,,0.00,874.0,WeatherDisplay:10.37,2013-06-23 10:09:00,
2013-06-23 12:11:00,82.3,64.0,29.98,West,260,10.4,10.4,54,0.00,FEW,,0.00,884.0,WeatherDisplay:10.37,2013-06-23 10:11:00,
2013-06-23 12:12:00,82.4,64.6,29.98,SW,228,8.1,8.1,55,0.00,FEW,,0.00,872.0,WeatherDisplay:10.37,2013-06-23 10:12:00,
2013-06-23 12:14:00,82.7,64.4,29.98,SSE,163,8.1,8.1,54,0.00,FEW,,0.00,863.0,WeatherDisplay:10.37,2013-06-23 10:14:00,
2013-06-23 12:16:00,82.8,64.5,29.98,South,170,10.4,10.4,54,0.00,FEW,,0.00,861.0,WeatherDisplay:10.37,2013-06-23 10:16:00,
2013-06-23 12:17:00,82.8,64.5,29.98,SW,215,9.2,9.2,54,0.00,FEW,,0.00,858.0,WeatherDisplay:10.37,2013-06-23 10:17:00,
2013-06-23 12:20:00,82.8,64.5,29.98,SW,223,3.5,3.9,54,0.00,FEW,,0.00,872.0,WeatherDisplay:10.37,2013-06-23 10:20:00,
2013-06-23 12:21:00,82.8,64.5,29.98,SE,144,3.5,0.0,54,0.00,FEW,,0.00,891.0,WeatherDisplay:10.37,2013-06-23 10:21:00,
2013-06-23 12:22:00,82.9,64.5,29.98,WSW,237,8.1,8.1,54,0.00,FEW,,0.00,870.0,WeatherDisplay:10.37,2013-06-23 10:22:00,
2013-06-23 12:25:00,83.0,63.6,29.98,West,263,6.9,6.9,52,0.00,FEW,,0.00,879.0,WeatherDisplay:10.37,2013-06-23 10:25:00,
2013-06-23 12:26:00,83.0,64.1,29.98,SSE,159,0.0,0.0,53,0.00,FEW,,0.00,879.0,WeatherDisplay:10.37,2013-06-23 10:26:00,
2013-06-23 12:27:00,83.0,63.6,29.97,WSW,245,3.5,3.5,52,0.00,FEW,,0.00,879.0,WeatherDisplay:10.37,2013-06-23 10:27:00,
2013-06-23 12:28:00,83.1,63.7,29.98,SW,227,3.5,3.5,52,0.00,FEW,,0.00,879.0,WeatherDisplay:10.37,2013-06-23 10:28:00,
2013-06-23 12:30:00,83.7,64.2,29.98,South,187,10.4,10.4,52,0.00,FEW,,0.00,879.0,WeatherDisplay:10.37,2013-06-23 10:30:00,
2013-06-23 12:32:00,83.8,63.7,29.98,SW,214,12.7,12.7,51,0.00,FEW,,0.00,877.0,WeatherDisplay:10.37,2013-06-23 10:32:00,
2013-06-23 12:33:00,84.0,63.9,29.98,WSW,244,10.4,10.4,51,0.00,FEW,,0.00,877.0,WeatherDisplay:10.37,2013-06-23 10:33:00,
2013-06-23 12:35:00,83.7,63.7,29.98,West,279,9.2,9.2,51,0.00,FEW,,0.00,889.0,WeatherDisplay:10.37,2013-06-23 10:35:00,
2013-06-23 12:37:00,83.5,63.5,29.98,WSW,249,5.8,5.8,51,0.00,FEW,,0.00,886.0,WeatherDisplay:10.37,2013-06-23 10:37:00,
2013-06-23 12:38:00,83.5,63.5,29.98,West,259,0.0,0.0,51,0.00,FEW,,0.00,886.0,WeatherDisplay:10.37,2013-06-23 10:38:00,
2013-06-23 12:40:00,83.7,63.7,29.98,WSW,246,5.8,5.8,51,0.00,FEW,,0.00,886.0,WeatherDisplay:10.37,2013-06-23 10:40:00,
2013-06-23 12:42:00,83.8,64.3,29.97,WSW,245,11.5,11.5,52,0.00,FEW,,0.00,923.0,WeatherDisplay:10.37,2013-06-23 10:42:00,
2013-06-23 12:43:00,83.8,64.3,29.97,SSW,205,10.4,10.4,52,0.00,FEW,,0.00,916.0,WeatherDisplay:10.37,2013-06-23 10:43:00,
2013-06-23 12:44:00,83.8,64.3,29.98,SW,223,14.0,14.0,52,0.00,FEW,,0.00,905.0,WeatherDisplay:10.37,2013-06-23 10:44:00,
2013-06-23 12:45:00,83.8,64.3,29.98,West,278,13.8,13.8,52,0.00,FEW,,0.00,896.0,WeatherDisplay:10.37,2013-06-23 10:45:00,
2013-06-23 12:47:00,83.6,64.7,29.98,West,273,8.1,8.1,53,0.00,FEW,,0.00,916.0,WeatherDisplay:10.37,2013-06-23 10:47:00,
2013-06-23 12:48:00,83.6,64.7,29.98,WSW,246,10.0,10.0,53,0.00,FEW,,0.00,916.0,WeatherDisplay:10.37,2013-06-23 10:48:00,
2013-06-23 12:49:00,83.6,64.7,29.98,SW,231,12.7,12.7,53,0.00,FEW,,0.00,911.0,WeatherDisplay:10.37,2013-06-23 10:49:00,
2013-06-23 12:51:00,83.5,64.0,29.97,WNW,291,13.8,13.8,52,0.00,FEW,,0.00,882.0,WeatherDisplay:10.37,2013-06-23 10:51:00,
2013-06-23 12:52:00,83.5,65.1,29.97,WSW,247,15.0,15.0,54,0.00,FEW,,0.00,884.0,WeatherDisplay:10.37,2013-06-23 10:52:00,
2013-06-23 12:53:00,83.5,65.1,29.97,WSW,245,15.0,15.0,54,0.00,FEW,,0.00,884.0,WeatherDisplay:10.37,2013-06-23 10:53:00,
2013-06-23 12:54:00,83.5,65.1,29.97,SSW,205,11.5,11.5,54,0.00,FEW,,0.00,884.0,WeatherDisplay:10.37,2013-06-23 10:54:00,
2013-06-23 12:56:00,83.7,64.8,29.97,SSW,207,10.4,10.4,53,0.00,FEW,,0.00,925.0,WeatherDisplay:10.37,2013-06-23 10:56:00,
2013-06-23 12:58:00,84.0,65.0,29.97,SSW,194,8.1,8.1,53,0.00,FEW,,0.00,904.0,WeatherDisplay:10.37,2013-06-23 10:58:00,
2013-06-23 12:59:00,84.3,65.3,29.97,WSW,238,9.0,9.3,53,0.00,FEW,,0.00,882.0,WeatherDisplay:10.37,2013-06-23 10:59:00,
2013-06-23 13:01:00,84.4,63.7,29.97,SW,223,9.2,9.2,50,0.00,FEW,,0.00,881.0,WeatherDisplay:10.37,2013-06-23 11:01:00,
2013-06-23 13:03:00,84.5,64.4,29.97,SW,233,12.7,12.7,51,0.00,FEW,,0.00,893.0,WeatherDisplay:10.37,2013-06-23 11:03:00,
2013-06-23 13:04:00,84.6,63.9,29.97,SW,228,9.2,9.2,50,0.00,FEW,,0.00,861.0,WeatherDisplay:10.37,2013-06-23 11:04:00,
2013-06-23 13:06:00,84.8,63.5,29.97,West,270,12.0,12.0,49,0.00,FEW,,0.00,877.0,WeatherDisplay:10.37,2013-06-23 11:06:00,
2013-06-23 13:08:00,84.6,63.3,29.97,WSW,239,10.4,10.4,49,0.00,FEW,,0.00,863.0,WeatherDisplay:10.37,2013-06-23 11:08:00,
2013-06-23 13:10:00,84.5,63.2,29.97,WNW,288,5.8,5.8,49,0.00,FEW,,0.00,849.0,WeatherDisplay:10.37,2013-06-23 11:10:00,
2013-06-23 13:11:00,84.5,63.2,29.97,South,186,11.0,11.0,49,0.00,FEW,,0.00,872.0,WeatherDisplay:10.37,2013-06-23 11:11:00,
2013-06-23 13:13:00,84.5,62.7,29.97,WSW,254,10.4,10.4,48,0.00,FEW,,0.00,867.0,WeatherDisplay:10.37,2013-06-23 11:13:00,
2013-06-23 13:14:00,84.5,62.7,29.97,West,267,10.4,10.4,48,0.00,FEW,,0.00,867.0,WeatherDisplay:10.37,2013-06-23 11:14:00,
2013-06-23 13:15:00,84.5,62.1,29.97,WSW,242,10.4,10.4,47,0.00,FEW,,0.00,870.0,WeatherDisplay:10.37,2013-06-23 11:15:00,
2013-06-23 13:16:00,84.4,61.4,29.97,SW,229,11.5,11.5,46,0.00,FEW,,0.00,868.0,WeatherDisplay:10.37,2013-06-23 11:16:00,
2013-06-23 13:19:00,84.4,60.1,29.97,WSW,240,16.1,16.1,44,0.00,FEW,,0.00,877.0,WeatherDisplay:10.37,2013-06-23 11:19:00,
2013-06-23 13:20:00,84.3,60.6,29.97,SSW,205,11.5,11.5,45,0.00,FEW,,0.00,879.0,WeatherDisplay:10.37,2013-06-23 11:20:00,
2013-06-23 13:21:00,84.6,61.5,29.97,WNW,287,9.0,9.0,46,0.00,FEW,,0.00,879.0,WeatherDisplay:10.37,2013-06-23 11:21:00,
2013-06-23 13:24:00,84.4,60.7,29.97,West,265,15.0,15.0,45,0.00,FEW,,0.00,882.0,WeatherDisplay:10.37,2013-06-23 11:24:00,
2013-06-23 13:25:00,84.2,60.6,29.97,West,259,17.3,17.3,45,0.00,FEW,,0.00,881.0,WeatherDisplay:10.37,2013-06-23 11:25:00,
2013-06-23 13:27:00,83.8,60.2,29.97,WSW,248,13.0,13.0,45,0.00,FEW,,0.00,889.0,WeatherDisplay:10.37,2013-06-23 11:27:00,
2013-06-23 13:29:00,83.7,60.1,29.97,West,272,12.7,12.7,45,0.00,FEW,,0.00,888.0,WeatherDisplay:10.37,2013-06-23 11:29:00,
2013-06-23 13:30:00,83.7,60.1,29.97,WSW,258,12.7,12.7,45,0.00,FEW,,0.00,881.0,WeatherDisplay:10.37,2013-06-23 11:30:00,
2013-06-23 13:32:00,83.5,59.9,29.97,West,262,11.0,11.0,45,0.00,FEW,,0.00,879.0,WeatherDisplay:10.37,2013-06-23 11:32:00,
2013-06-23 13:34:00,83.4,61.1,29.97,WSW,257,12.7,12.7,47,0.00,FEW,,0.00,874.0,WeatherDisplay:10.37,2013-06-23 11:34:00,
2013-06-23 13:35:00,83.3,61.6,29.97,WSW,251,13.8,13.8,48,0.00,FEW,,0.00,874.0,WeatherDisplay:10.37,2013-06-23 11:35:00,
2013-06-23 13:38:00,83.9,62.1,29.97,SW,221,9.2,9.2,48,0.00,FEW,,0.00,884.0,WeatherDisplay:10.37,2013-06-23 11:38:00,
2013-06-23 13:40:00,84.1,61.7,29.97,SW,229,13.8,13.8,47,0.00,FEW,,0.00,874.0,WeatherDisplay:10.37,2013-06-23 11:40:00,
2013-06-23 13:43:00,84.0,61.0,29.97,West,269,13.8,13.8,46,0.00,FEW,,0.00,872.0,WeatherDisplay:10.37,2013-06-23 11:43:00,
2013-06-23 13:45:00,83.8,61.4,29.97,West,270,18.4,18.4,47,0.00,FEW,,0.00,874.0,WeatherDisplay:10.37,2013-06-23 11:45:00,
2013-06-23 13:46:00,83.6,61.2,29.97,West,276,17.3,17.3,47,0.00,FEW,,0.00,874.0,WeatherDisplay:10.37,2013-06-23 11:46:00,
2013-06-23 13:48:00,83.3,61.6,29.97,SW,236,11.5,11.5,48,0.00,FEW,,0.00,872.0,WeatherDisplay:10.37,2013-06-23 11:48:00,
2013-06-23 13:50:00,83.3,61.0,29.97,SW,227,16.1,16.1,47,0.00,FEW,,0.00,867.0,WeatherDisplay:10.37,2013-06-23 11:50:00,
2013-06-23 13:51:00,83.2,61.5,29.97,SW,215,15.0,15.0,48,0.00,FEW,,0.00,865.0,WeatherDisplay:10.37,2013-06-23 11:51:00,
2013-06-23 13:53:00,83.3,61.6,29.97,West,264,16.1,16.1,48,0.00,FEW,,0.00,868.0,WeatherDisplay:10.37,2013-06-23 11:53:00,
2013-06-23 13:55:00,83.1,61.4,29.97,West,263,17.3,17.3,48,0.00,FEW,,0.00,868.0,WeatherDisplay:10.37,2013-06-23 11:55:00,
2013-06-23 13:56:00,83.1,61.4,29.97,WSW,244,13.8,13.8,48,0.00,FEW,,0.00,861.0,WeatherDisplay:10.37,2013-06-23 11:56:00,
2013-06-23 13:59:00,83.4,62.2,29.97,West,264,16.1,16.1,49,0.00,FEW,,0.00,861.0,WeatherDisplay:10.37,2013-06-23 11:59:00,
2013-06-23 14:00:00,83.3,61.6,29.97,WSW,249,19.6,19.6,48,0.00,FEW,,0.00,867.0,WeatherDisplay:10.37,2013-06-23 12:00:00,
2013-06-23 14:01:00,83.2,61.5,29.97,West,275,15.0,15.0,48,0.00,FEW,,0.00,865.0,WeatherDisplay:10.37,2013-06-23 12:01:00,
2013-06-23 14:04:00,83.1,61.4,29.97,West,275,15.0,15.0,48,0.00,FEW,,0.00,865.0,WeatherDisplay:10.37,2013-06-23 12:04:00,
2013-06-23 14:05:00,83.0,60.7,29.97,WSW,246,13.8,13.8,47,0.00,FEW,,0.00,865.0,WeatherDisplay:10.37,2013-06-23 12:05:00,
2013-06-23 14:06:00,83.0,60.7,29.97,West,270,17.3,17.3,47,0.00,FEW,,0.00,867.0,WeatherDisplay:10.37,2013-06-23 12:06:00,
2013-06-23 14:07:00,83.0,60.7,29.97,WSW,249,12.7,12.7,47,0.00,FEW,,0.00,867.0,WeatherDisplay:10.37,2013-06-23 12:07:00,
2013-06-23 14:09:00,83.3,62.1,29.97,WSW,240,15.0,15.0,49,0.00,FEW,,0.00,856.0,WeatherDisplay:10.37,2013-06-23 12:09:00,
2013-06-23 14:10:00,83.3,61.6,29.97,West,267,14.0,14.0,48,0.00,FEW,,0.00,856.0,WeatherDisplay:10.37,2013-06-23 12:10:00,
2013-06-23 14:12:00,83.3,62.1,29.97,West,260,15.0,15.0,49,0.00,FEW,,0.00,854.0,WeatherDisplay:10.37,2013-06-23 12:12:00,
2013-06-23 14:14:00,83.0,61.9,29.97,WNW,285,13.8,13.8,49,0.00,FEW,,0.00,851.0,WeatherDisplay:10.37,2013-06-23 12:14:00,
2013-06-23 14:16:00,82.8,61.7,29.97,West,259,15.0,15.0,49,0.00,FEW,,0.00,847.0,WeatherDisplay:10.37,2013-06-23 12:16:00,
2013-06-23 14:17:00,82.8,61.7,29.97,WSW,238,17.3,17.3,49,0.00,FEW,,0.00,842.0,WeatherDisplay:10.37,2013-06-23 12:17:00,
2013-06-23 14:19:00,82.6,61.5,29.97,West,259,15.0,15.0,49,0.00,FEW,,0.00,842.0,WeatherDisplay:10.37,2013-06-23 12:19:00,
2013-06-23 14:21:00,82.8,62.3,29.97,WSW,240,20.0,20.0,50,0.00,FEW,,0.00,847.0,WeatherDisplay:10.37,2013-06-23 12:21:00,
2013-06-23 14:22:00,82.9,61.8,29.97,WSW,255,20.7,20.7,49,0.00,FEW,,0.00,847.0,WeatherDisplay:10.37,2013-06-23 12:22:00,
2013-06-23 14:25:00,82.6,61.5,29.97,WSW,252,16.1,16.1,49,0.00,FEW,,0.00,846.0,WeatherDisplay:10.37,2013-06-23 12:25:00,
2013-06-23 14:27:00,82.8,59.3,29.97,WSW,252,18.4,18.4,45,0.00,FEW,,0.00,840.0,WeatherDisplay:10.37,2013-06-23 12:27:00,
2013-06-23 14:28:00,82.6,59.7,29.98,WSW,248,18.4,18.4,46,0.00,FEW,,0.00,837.0,WeatherDisplay:10.37,2013-06-23 12:28:00,
2013-06-23 14:30:00,82.6,60.9,29.97,WSW,251,12.0,12.0,48,0.00,FEW,,0.00,831.0,WeatherDisplay:10.37,2013-06-23 12:30:00,
2013-06-23 14:32:00,83.0,60.7,29.98,WSW,242,19.6,19.6,47,0.00,FEW,,0.00,833.0,WeatherDisplay:10.37,2013-06-23 12:32:00,
2013-06-23 14:33:00,83.3,60.4,29.97,SSW,198,11.5,11.5,46,0.00,FEW,,0.00,828.0,WeatherDisplay:10.37,2013-06-23 12:33:00,
2013-06-23 14:36:00,83.5,61.1,29.98,WSW,241,19.6,19.6,47,0.00,FEW,,0.00,826.0,WeatherDisplay:10.37,2013-06-23 12:36:00,
2013-06-23 14:37:00,83.5,61.1,29.98,WSW,241,15.0,15.0,47,0.00,FEW,,0.00,826.0,WeatherDisplay:10.37,2013-06-23 12:37:00,
2013-06-23 14:38:00,83.0,61.3,29.97,West,271,16.1,16.1,48,0.00,FEW,,0.00,826.0,WeatherDisplay:10.37,2013-06-23 12:38:00,
2013-06-23 14:39:00,82.9,61.2,29.97,West,260,18.4,18.4,48,0.00,FEW,,0.00,826.0,WeatherDisplay:10.37,2013-06-23 12:39:00,
2013-06-23 14:41:00,82.4,60.7,29.98,WSW,243,15.0,15.0,48,0.00,FEW,,0.00,826.0,WeatherDisplay:10.37,2013-06-23 12:41:00,
2013-06-23 14:42:00,82.4,61.3,29.97,West,263,15.0,15.0,49,0.00,FEW,,0.00,812.0,WeatherDisplay:10.37,2013-06-23 12:42:00,
2013-06-23 14:43:00,82.4,61.3,29.97,West,265,11.5,11.5,49,0.00,FEW,,0.00,816.0,WeatherDisplay:10.37,2013-06-23 12:43:00,
2013-06-23 14:44:00,82.4,61.3,29.97,WNW,286,20.0,20.0,49,0.00,FEW,,0.00,816.0,WeatherDisplay:10.37,2013-06-23 12:44:00,
2013-06-23 14:47:00,82.2,61.1,29.98,West,265,17.3,17.3,49,0.00,FEW,,0.00,814.0,WeatherDisplay:10.37,2013-06-23 12:47:00,
2013-06-23 14:48:00,82.1,61.0,29.97,WSW,255,17.3,17.3,49,0.00,FEW,,0.00,814.0,WeatherDisplay:10.37,2013-06-23 12:48:00,
2013-06-23 14:49:00,82.0,61.0,29.98,SW,236,15.0,15.0,49,0.00,FEW,,0.00,814.0,WeatherDisplay:10.37,2013-06-23 12:49:00,
2013-06-23 14:52:00,81.9,61.4,29.97,West,267,15.0,15.0,50,0.00,FEW,,0.00,809.0,WeatherDisplay:10.37,2013-06-23 12:52:00,
2013-06-23 14:53:00,82.0,61.0,29.97,SSW,210,14.0,14.0,49,0.00,FEW,,0.00,807.0,WeatherDisplay:10.37,2013-06-23 12:53:00,
2013-06-23 14:54:00,82.1,60.5,29.97,WSW,238,13.8,13.8,48,0.00,FEW,,0.00,805.0,WeatherDisplay:10.37,2013-06-23 12:54:00,
2013-06-23 14:57:00,82.4,61.9,29.97,WNW,299,18.4,18.4,50,0.00,FEW,,0.00,800.0,WeatherDisplay:10.37,2013-06-23 12:57:00,
2013-06-23 14:58:00,82.4,61.3,29.97,SW,220,18.4,18.4,49,0.00,FEW,,0.00,796.0,WeatherDisplay:10.37,2013-06-23 12:58:00,
2013-06-23 14:59:00,82.6,61.5,29.97,West,261,19.6,19.6,49,0.00,FEW,,0.00,793.0,WeatherDisplay:10.37,2013-06-23 12:59:00,
2013-06-23 15:02:00,82.4,61.9,29.97,SSW,207,15.0,15.0,50,0.00,FEW,,0.00,789.0,WeatherDisplay:10.37,2013-06-23 13:02:00,
2013-06-23 15:03:00,82.6,61.5,29.97,WSW,242,16.0,16.0,49,0.00,FEW,,0.00,788.0,WeatherDisplay:10.37,2013-06-23 13:03:00,
2013-06-23 15:04:00,82.5,60.8,29.98,West,275,16.1,16.1,48,0.00,FEW,,0.00,788.0,WeatherDisplay:10.37,2013-06-23 13:04:00,
2013-06-23 15:07:00,82.1,61.6,29.98,West,259,15.0,15.0,50,0.00,FEW,,0.00,780.0,WeatherDisplay:10.37,2013-06-23 13:07:00,
2013-06-23 15:08:00,82.0,61.0,29.98,SW,219,9.2,9.2,49,0.00,FEW,,0.00,770.0,WeatherDisplay:10.37,2013-06-23 13:08:00,
2013-06-23 15:09:00,82.2,61.7,29.98,WSW,253,11.5,11.5,50,0.00,FEW,,0.00,770.0,WeatherDisplay:10.37,2013-06-23 13:09:00,
2013-06-23 15:12:00,82.5,62.5,29.98,SW,232,13.0,13.0,51,0.00,FEW,,0.00,768.0,WeatherDisplay:10.37,2013-06-23 13:12:00,
2013-06-23 15:13:00,82.3,62.4,29.98,WSW,241,17.3,17.3,51,0.00,FEW,,0.00,772.0,WeatherDisplay:10.37,2013-06-23 13:13:00,
2013-06-23 15:14:00,82.0,62.1,29.98,SW,231,18.4,18.4,51,0.00,FEW,,0.00,763.0,WeatherDisplay:10.37,2013-06-23 13:14:00,
2013-06-23 15:15:00,82.0,62.6,29.98,SSW,211,18.4,18.4,52,0.00,FEW,,0.00,766.0,WeatherDisplay:10.37,2013-06-23 13:15:00,
2013-06-23 15:17:00,81.9,63.1,29.98,West,263,16.1,16.1,53,0.00,FEW,,0.00,754.0,WeatherDisplay:10.37,2013-06-23 13:17:00,
2013-06-23 15:18:00,81.9,63.1,29.98,West,262,16.1,16.1,53,0.00,FEW,,0.00,754.0,WeatherDisplay:10.37,2013-06-23 13:18:00,
2013-06-23 15:20:00,81.6,63.3,29.98,WSW,247,19.6,19.6,54,0.00,FEW,,0.00,756.0,WeatherDisplay:10.37,2013-06-23 13:20:00,
2013-06-23 15:22:00,81.2,64.0,29.98,SW,215,11.5,11.5,56,0.00,FEW,,0.00,754.0,WeatherDisplay:10.37,2013-06-23 13:22:00,
2013-06-23 15:23:00,81.2,64.0,29.98,West,270,11.5,11.5,56,0.00,FEW,,0.00,754.0,WeatherDisplay:10.37,2013-06-23 13:23:00,
2013-06-23 15:25:00,81.2,63.5,29.98,WSW,255,18.0,18.0,55,0.00,FEW,,0.00,752.0,WeatherDisplay:10.37,2013-06-23 13:25:00,
2013-06-23 15:28:00,81.1,63.4,29.97,West,260,17.3,17.3,55,0.00,FEW,,0.00,740.0,WeatherDisplay:10.37,2013-06-23 13:28:00,
2013-06-23 15:30:00,80.9,63.2,29.98,West,265,19.6,19.6,55,0.00,FEW,,0.00,735.0,WeatherDisplay:10.37,2013-06-23 13:30:00,
2013-06-23 15:31:00,80.9,63.7,29.98,WSW,248,18.0,18.0,56,0.00,FEW,,0.00,735.0,WeatherDisplay:10.37,2013-06-23 13:31:00,
2013-06-23 15:33:00,80.6,64.5,29.97,WSW,242,18.4,18.4,58,0.00,FEW,,0.00,735.0,WeatherDisplay:10.37,2013-06-23 13:33:00,
2013-06-23 15:34:00,80.4,63.3,29.98,West,262,18.4,18.4,56,0.00,FEW,,0.00,735.0,WeatherDisplay:10.37,2013-06-23 13:34:00,
2013-06-23 15:36:00,80.4,64.3,29.97,West,271,17.3,17.3,58,0.00,FEW,,0.00,724.0,WeatherDisplay:10.37,2013-06-23 13:36:00,
2013-06-23 15:38:00,80.5,64.4,29.98,SW,218,17.3,17.3,58,0.00,FEW,,0.00,719.0,WeatherDisplay:10.37,2013-06-23 13:38:00,
2013-06-23 15:39:00,80.4,64.3,29.98,WSW,245,15.0,15.0,58,0.00,FEW,,0.00,719.0,WeatherDisplay:10.37,2013-06-23 13:39:00,
2013-06-23 15:41:00,80.4,64.3,29.97,WSW,250,17.3,17.3,58,0.00,FEW,,0.00,717.0,WeatherDisplay:10.37,2013-06-23 13:41:00,
2013-06-23 15:43:00,80.2,64.1,29.97,WSW,254,18.4,18.4,58,0.00,FEW,,0.00,708.0,WeatherDisplay:10.37,2013-06-23 13:43:00,
2013-06-23 15:44:00,80.1,64.5,29.97,SW,229,19.6,19.6,59,0.00,FEW,,0.00,707.0,WeatherDisplay:10.37,2013-06-23 13:44:00,
2013-06-23 15:46:00,80.0,64.4,29.97,SW,228,20.7,20.7,59,0.00,FEW,,0.00,705.0,WeatherDisplay:10.37,2013-06-23 13:46:00,
2013-06-23 15:48:00,79.9,64.8,29.97,West,268,16.1,16.1,60,0.00,FEW,,0.00,703.0,WeatherDisplay:10.37,2013-06-23 13:48:00,
2013-06-23 15:49:00,79.8,64.2,29.97,WSW,257,13.8,13.8,59,0.00,FEW,,0.00,700.0,WeatherDisplay:10.37,2013-06-23 13:49:00,
2013-06-23 15:51:00,79.8,64.7,29.97,West,266,15.0,15.0,60,0.00,FEW,,0.00,693.0,WeatherDisplay:10.37,2013-06-23 13:51:00,
2013-06-23 15:53:00,80.0,65.3,29.97,West,265,11.5,11.5,61,0.00,FEW,,0.00,691.0,WeatherDisplay:10.37,2013-06-23 13:53:00,
2013-06-23 15:54:00,80.2,65.5,29.97,SW,221,13.0,13.0,61,0.00,FEW,,0.00,687.0,WeatherDisplay:10.37,2013-06-23 13:54:00,
2013-06-23 15:55:00,80.2,65.5,29.97,WSW,248,16.1,16.1,61,0.00,FEW,,0.00,687.0,WeatherDisplay:10.37,2013-06-23 13:55:00,
2013-06-23 15:57:00,80.4,65.2,29.97,West,271,15.0,15.0,60,0.00,FEW,,0.00,687.0,WeatherDisplay:10.37,2013-06-23 13:57:00,
2013-06-23 15:58:00,80.4,65.2,29.97,WSW,257,14.0,14.0,60,0.00,FEW,,0.00,687.0,WeatherDisplay:10.37,2013-06-23 13:58:00,
2013-06-23 16:00:00,80.3,65.1,29.97,WSW,250,18.4,18.4,60,0.00,FEW,,0.00,679.0,WeatherDisplay:10.37,2013-06-23 14:00:00,
2013-06-23 16:01:00,80.2,63.6,29.97,West,259,16.1,16.1,57,0.00,FEW,,0.00,671.0,WeatherDisplay:10.37,2013-06-23 14:01:00,
2013-06-23 16:03:00,80.1,64.0,29.97,SSW,212,15.0,15.0,58,0.00,FEW,,0.00,661.0,WeatherDisplay:10.37,2013-06-23 14:03:00,
2013-06-23 16:04:00,80.2,63.6,29.97,SSW,211,13.8,13.8,57,0.00,FEW,,0.00,661.0,WeatherDisplay:10.37,2013-06-23 14:04:00,
2013-06-23 16:05:00,80.2,63.6,29.97,WSW,246,17.3,17.3,57,0.00,FEW,,0.00,659.0,WeatherDisplay:10.37,2013-06-23 14:05:00,
2013-06-23 16:06:00,80.5,64.4,29.96,SW,232,11.5,11.5,58,0.00,FEW,,0.00,661.0,WeatherDisplay:10.37,2013-06-23 14:06:00,
2013-06-23 16:08:00,80.8,64.6,29.96,West,279,15.0,15.0,58,0.00,FEW,,0.00,654.0,WeatherDisplay:10.37,2013-06-23 14:08:00,
2013-06-23 16:09:00,80.9,65.2,29.97,WSW,244,15.0,15.0,59,0.00,FEW,,0.00,656.0,WeatherDisplay:10.37,2013-06-23 14:09:00,
2013-06-23 16:10:00,81.0,65.3,29.97,SW,223,19.6,19.6,59,0.00,FEW,,0.00,656.0,WeatherDisplay:10.37,2013-06-23 14:10:00,
2013-06-23 16:11:00,80.6,64.9,29.96,WSW,247,13.8,13.8,59,0.00,FEW,,0.00,650.0,WeatherDisplay:10.37,2013-06-23 14:11:00,
2013-06-23 16:13:00,80.5,64.9,29.96,West,262,15.0,15.0,59,0.00,FEW,,0.00,645.0,WeatherDisplay:10.37,2013-06-23 14:13:00,
2013-06-23 16:14:00,80.3,63.7,29.96,WSW,252,16.1,16.1,57,0.00,FEW,,0.00,643.0,WeatherDisplay:10.37,2013-06-23 14:14:00,
2013-06-23 16:15:00,80.3,63.7,29.96,WSW,240,17.0,17.0,57,0.00,FEW,,0.00,643.0,WeatherDisplay:10.37,2013-06-23 14:15:00,
2013-06-23 16:17:00,80.2,64.1,29.97,WSW,237,15.0,15.0,58,0.00,FEW,,0.00,643.0,WeatherDisplay:10.37,2013-06-23 14:17:00,
2013-06-23 16:18:00,80.3,64.2,29.97,WSW,242,16.1,16.1,58,0.00,FEW,,0.00,629.0,WeatherDisplay:10.37,2013-06-23 14:18:00,
2013-06-23 16:19:00,80.4,64.8,29.96,WSW,253,11.5,11.5,59,0.00,FEW,,0.00,629.0,WeatherDisplay:10.37,2013-06-23 14:19:00,
2013-06-23 16:20:00,80.5,63.9,29.96,West,270,18.4,18.4,57,0.00,FEW,,0.00,626.0,WeatherDisplay:10.37,2013-06-23 14:20:00,
2013-06-23 16:23:00,80.4,63.8,29.97,SW,231,19.6,19.6,57,0.00,FEW,,0.00,622.0,WeatherDisplay:10.37,2013-06-23 14:23:00,
2013-06-23 16:24:00,80.2,63.6,29.97,SW,225,16.1,16.1,57,0.00,FEW,,0.00,619.0,WeatherDisplay:10.37,2013-06-23 14:24:00,
2013-06-23 16:25:00,80.2,64.1,29.96,WSW,240,12.7,12.7,58,0.00,FEW,,0.00,617.0,WeatherDisplay:10.37,2013-06-23 14:25:00,
2013-06-23 16:28:00,80.0,63.4,29.96,West,281,13.8,13.8,57,0.00,FEW,,0.00,610.0,WeatherDisplay:10.37,2013-06-23 14:28:00,
2013-06-23 16:29:00,80.1,64.0,29.97,WSW,253,15.0,15.0,58,0.00,FEW,,0.00,606.0,WeatherDisplay:10.37,2013-06-23 14:29:00,
2013-06-23 16:30:00,80.2,63.1,29.96,WSW,248,16.1,16.1,56,0.00,FEW,,0.00,594.0,WeatherDisplay:10.37,2013-06-23 14:30:00,
2013-06-23 16:31:00,80.1,63.0,29.96,SW,236,15.0,15.0,56,0.00,FEW,,0.00,596.0,WeatherDisplay:10.37,2013-06-23 14:31:00,
2013-06-23 16:34:00,80.4,63.3,29.96,SW,232,11.5,11.5,56,0.00,FEW,,0.00,596.0,WeatherDisplay:10.37,2013-06-23 14:34:00,
2013-06-23 16:35:00,81.0,64.3,29.97,WSW,248,15.0,15.0,57,0.00,FEW,,0.00,592.0,WeatherDisplay:10.37,2013-06-23 14:35:00,
2013-06-23 16:37:00,81.1,63.9,29.96,SW,234,17.3,17.3,56,0.00,FEW,,0.00,587.0,WeatherDisplay:10.37,2013-06-23 14:37:00,
2013-06-23 16:39:00,81.0,63.8,29.97,West,269,15.0,15.0,56,0.00,FEW,,0.00,584.0,WeatherDisplay:10.37,2013-06-23 14:39:00,
2013-06-23 16:40:00,80.9,63.7,29.96,West,267,15.0,15.0,56,0.00,FEW,,0.00,584.0,WeatherDisplay:10.37,2013-06-23 14:40:00,
2013-06-23 16:42:00,80.4,63.3,29.97,WSW,246,20.7,20.7,56,0.00,FEW,,0.00,575.0,WeatherDisplay:10.37,2013-06-23 14:42:00,
2013-06-23 16:44:00,80.0,62.9,29.97,SW,234,18.4,18.4,56,0.00,FEW,,0.00,570.0,WeatherDisplay:10.37,2013-06-23 14:44:00,
2013-06-23 16:45:00,79.7,62.6,29.96,WSW,252,15.0,15.0,56,0.00,FEW,,0.00,564.0,WeatherDisplay:10.37,2013-06-23 14:45:00,
2013-06-23 16:48:00,79.7,63.1,29.96,West,273,18.0,18.0,57,0.00,FEW,,0.00,559.0,WeatherDisplay:10.37,2013-06-23 14:48:00,
2013-06-23 16:49:00,79.6,63.0,29.97,WSW,257,18.4,18.4,57,0.00,FEW,,0.00,559.0,WeatherDisplay:10.37,2013-06-23 14:49:00,
2013-06-23 16:50:00,79.5,63.4,29.96,WSW,247,11.5,11.5,58,0.00,FEW,,0.00,550.0,WeatherDisplay:10.37,2013-06-23 14:50:00,
2013-06-23 16:51:00,79.5,63.4,29.96,WSW,257,11.5,11.5,58,0.00,FEW,,0.00,550.0,WeatherDisplay:10.37,2013-06-23 14:51:00,
2013-06-23 16:53:00,79.5,62.9,29.96,WSW,245,18.4,18.4,57,0.00,FEW,,0.00,547.0,WeatherDisplay:10.37,2013-06-23 14:53:00,
2013-06-23 16:54:00,79.6,63.5,29.96,WNW,284,11.5,11.5,58,0.00,FEW,,0.00,543.0,WeatherDisplay:10.37,2013-06-23 14:54:00,
2013-06-23 16:56:00,79.7,63.1,29.96,SSW,207,13.8,13.8,57,0.00,FEW,,0.00,536.0,WeatherDisplay:10.37,2013-06-23 14:56:00,
2013-06-23 16:58:00,79.8,63.2,29.96,West,265,16.1,16.1,57,0.00,FEW,,0.00,534.0,WeatherDisplay:10.37,2013-06-23 14:58:00,
2013-06-23 16:59:00,79.8,62.7,29.96,West,267,16.1,16.1,56,0.00,FEW,,0.00,534.0,WeatherDisplay:10.37,2013-06-23 14:59:00,
2013-06-23 17:01:00,80.0,62.9,29.96,WSW,252,13.0,13.0,56,0.00,FEW,,0.00,534.0,WeatherDisplay:10.37,2013-06-23 15:01:00,
2013-06-23 17:02:00,80.0,62.4,29.97,West,266,18.0,18.0,55,0.00,FEW,,0.00,522.0,WeatherDisplay:10.37,2013-06-23 15:02:00,
2013-06-23 17:03:00,80.0,62.9,29.96,WSW,252,19.6,19.6,56,0.00,FEW,,0.00,519.0,WeatherDisplay:10.37,2013-06-23 15:03:00,
2013-06-23 17:04:00,80.0,62.9,29.96,WSW,254,19.6,19.6,56,0.00,FEW,,0.00,519.0,WeatherDisplay:10.37,2013-06-23 15:04:00,
2013-06-23 17:06:00,79.6,63.0,29.96,WSW,238,16.1,16.1,57,0.00,FEW,,0.00,508.0,WeatherDisplay:10.37,2013-06-23 15:06:00,
2013-06-23 17:07:00,79.6,63.0,29.96,West,266,14.0,15.2,57,0.00,FEW,,0.00,506.0,WeatherDisplay:10.37,2013-06-23 15:07:00,
2013-06-23 17:08:00,79.5,62.9,29.96,West,275,19.6,19.6,57,0.00,FEW,,0.00,504.0,WeatherDisplay:10.37,2013-06-23 15:08:00,
2013-06-23 17:10:00,79.4,62.8,29.96,WSW,242,12.7,12.7,57,0.00,FEW,,0.00,503.0,WeatherDisplay:10.37,2013-06-23 15:10:00,
2013-06-23 17:12:00,79.4,63.3,29.95,West,270,17.3,17.3,58,0.00,FEW,,0.00,499.0,WeatherDisplay:10.37,2013-06-23 15:12:00,
2013-06-23 17:13:00,79.2,63.1,29.96,WSW,243,16.1,16.1,58,0.00,FEW,,0.00,492.0,WeatherDisplay:10.37,2013-06-23 15:13:00,
2013-06-23 17:15:00,79.1,62.6,29.96,SW,225,15.0,15.0,57,0.00,FEW,,0.00,489.0,WeatherDisplay:10.37,2013-06-23 15:15:00,
2013-06-23 17:17:00,78.8,62.8,29.96,WSW,244,13.8,13.8,58,0.00,FEW,,0.00,478.0,WeatherDisplay:10.37,2013-06-23 15:17:00,
2013-06-23 17:18:00,78.7,63.2,29.96,West,262,16.1,16.1,59,0.00,FEW,,0.00,478.0,WeatherDisplay:10.37,2013-06-23 15:18:00,
2013-06-23 17:19:00,78.6,63.1,29.96,WSW,254,12.7,12.7,59,0.00,FEW,,0.00,476.0,WeatherDisplay:10.37,2013-06-23 15:19:00,
2013-06-23 17:20:00,78.6,63.6,29.96,SW,218,11.5,11.5,60,0.00,FEW,,0.00,476.0,WeatherDisplay:10.37,2013-06-23 15:20:00,
2013-06-23 17:22:00,78.7,64.1,29.96,WSW,248,18.4,18.4,61,0.00,FEW,,0.00,464.0,WeatherDisplay:10.37,2013-06-23 15:22:00,
2013-06-23 17:23:00,78.7,64.1,29.96,West,265,18.4,18.4,61,0.00,FEW,,0.00,464.0,WeatherDisplay:10.37,2013-06-23 15:23:00,
2013-06-23 17:24:00,78.8,64.7,29.96,West,267,16.1,16.1,62,0.00,FEW,,0.00,462.0,WeatherDisplay:10.37,2013-06-23 15:24:00,
2013-06-23 17:25:00,78.6,64.0,29.96,West,264,19.6,19.6,61,0.00,FEW,,0.00,459.0,WeatherDisplay:10.37,2013-06-23 15:25:00,
2013-06-23 17:26:00,78.6,64.0,29.96,WSW,253,15.0,15.0,61,0.00,FEW,,0.00,454.0,WeatherDisplay:10.37,2013-06-23 15:26:00,
2013-06-23 17:28:00,78.6,63.6,29.96,SW,236,15.0,15.0,60,0.00,FEW,,0.00,446.0,WeatherDisplay:10.37,2013-06-23 15:28:00,
2013-06-23 17:29:00,78.6,64.0,29.96,SSW,202,12.7,12.7,61,0.00,FEW,,0.00,446.0,WeatherDisplay:10.37,2013-06-23 15:29:00,
2013-06-23 17:31:00,78.7,64.1,29.95,SW,229,11.5,11.5,61,0.00,FEW,,0.00,443.0,WeatherDisplay:10.37,2013-06-23 15:31:00,
2013-06-23 17:34:00,78.6,64.0,29.95,WSW,237,17.3,17.3,61,0.00,FEW,,0.00,434.0,WeatherDisplay:10.37,2013-06-23 15:34:00,
2013-06-23 17:36:00,78.7,64.6,29.95,WSW,244,12.0,12.0,62,0.00,FEW,,0.00,429.0,WeatherDisplay:10.37,2013-06-23 15:36:00,
2013-06-23 17:39:00,78.8,64.7,29.95,WSW,246,9.2,9.2,62,0.00,FEW,,0.00,381.0,WeatherDisplay:10.37,2013-06-23 15:39:00,
2013-06-23 17:41:00,78.9,64.8,29.95,West,266,16.1,16.1,62,0.00,FEW,,0.00,427.0,WeatherDisplay:10.37,2013-06-23 15:41:00,
2013-06-23 17:42:00,78.8,64.7,29.95,SW,219,17.3,17.3,62,0.00,FEW,,0.00,427.0,WeatherDisplay:10.37,2013-06-23 15:42:00,
2013-06-23 17:44:00,78.9,64.8,29.95,SW,217,12.0,12.0,62,0.00,FEW,,0.00,427.0,WeatherDisplay:10.37,2013-06-23 15:44:00,
2013-06-23 17:45:00,78.9,64.8,29.95,SW,229,13.8,13.8,62,0.00,FEW,,0.00,427.0,WeatherDisplay:10.37,2013-06-23 15:45:00,
2013-06-23 17:46:00,78.8,64.7,29.96,WSW,244,15.0,15.0,62,0.00,FEW,,0.00,408.0,WeatherDisplay:10.37,2013-06-23 15:46:00,
2013-06-23 17:47:00,78.8,64.7,29.96,SW,236,14.0,14.0,62,0.00,FEW,,0.00,408.0,WeatherDisplay:10.37,2013-06-23 15:47:00,
2013-06-23 17:49:00,78.6,64.5,29.96,WSW,240,16.1,16.1,62,0.00,FEW,,0.00,408.0,WeatherDisplay:10.37,2013-06-23 15:49:00,
2013-06-23 17:50:00,78.6,65.4,29.96,SW,225,12.7,12.7,64,0.00,FEW,,0.00,413.0,WeatherDisplay:10.37,2013-06-23 15:50:00,
2013-06-23 17:52:00,78.4,65.2,29.96,WSW,250,17.3,17.3,64,0.00,FEW,,0.00,406.0,WeatherDisplay:10.37,2013-06-23 15:52:00,
2013-06-23 17:54:00,78.3,65.1,29.96,WSW,244,17.3,17.3,64,0.00,FEW,,0.00,394.0,WeatherDisplay:10.37,2013-06-23 15:54:00,
2013-06-23 17:55:00,78.2,65.0,29.96,SW,214,17.3,17.3,64,0.00,FEW,,0.00,394.0,WeatherDisplay:10.37,2013-06-23 15:55:00,
2013-06-23 17:56:00,78.2,65.5,29.96,SW,229,12.7,12.7,65,0.00,FEW,,0.00,387.0,WeatherDisplay:10.37,2013-06-23 15:56:00,
2013-06-23 17:58:00,78.2,65.5,29.95,WSW,255,15.0,15.0,65,0.00,FEW,,0.00,406.0,WeatherDisplay:10.37,2013-06-23 15:58:00,
2013-06-23 18:01:00,77.9,65.2,29.95,West,273,15.0,15.0,65,0.00,FEW,,0.00,394.0,WeatherDisplay:10.37,2013-06-23 16:01:00,
2013-06-23 18:03:00,77.8,65.5,29.95,SW,229,15.0,15.0,66,0.00,FEW,,0.00,394.0,WeatherDisplay:10.37,2013-06-23 16:03:00,
2013-06-23 18:04:00,77.8,65.5,29.95,SW,221,15.0,15.0,66,0.00,FEW,,0.00,394.0,WeatherDisplay:10.37,2013-06-23 16:04:00,
2013-06-23 18:06:00,77.9,65.6,29.95,West,261,12.0,12.0,66,0.00,FEW,,0.00,359.0,WeatherDisplay:10.37,2013-06-23 16:06:00,
2013-06-23 18:07:00,78.0,65.3,29.95,West,277,12.7,12.7,65,0.00,FEW,,0.00,359.0,WeatherDisplay:10.37,2013-06-23 16:07:00,
2013-06-23 18:08:00,77.9,65.2,29.95,WSW,254,15.0,15.0,65,0.00,FEW,,0.00,343.0,WeatherDisplay:10.37,2013-06-23 16:08:00,
2013-06-23 18:09:00,77.8,65.1,29.96,WSW,255,15.0,15.0,65,0.00,FEW,,0.00,338.0,WeatherDisplay:10.37,2013-06-23 16:09:00,
2013-06-23 18:11:00,77.6,65.3,29.96,West,271,13.8,13.8,66,0.00,FEW,,0.00,338.0,WeatherDisplay:10.37,2013-06-23 16:11:00,
2013-06-23 18:12:00,77.6,65.3,29.96,West,265,16.1,16.1,66,0.00,FEW,,0.00,334.0,WeatherDisplay:10.37,2013-06-23 16:12:00,
2013-06-23 18:13:00,77.5,65.2,29.95,WSW,251,16.1,16.1,66,0.00,FEW,,0.00,327.0,WeatherDisplay:10.37,2013-06-23 16:13:00,
2013-06-23 18:15:00,77.4,65.1,29.95,WSW,251,12.7,12.7,66,0.00,FEW,,0.00,330.0,WeatherDisplay:10.37,2013-06-23 16:15:00,
2013-06-23 18:16:00,77.4,65.1,29.95,West,261,13.0,13.0,66,0.00,FEW,,0.00,327.0,WeatherDisplay:10.37,2013-06-23 16:16:00,
2013-06-23 18:17:00,77.3,64.6,29.95,SW,223,11.5,11.5,65,0.00,FEW,,0.00,320.0,WeatherDisplay:10.37,2013-06-23 16:17:00,
2013-06-23 18:18:00,77.2,64.5,29.95,WSW,253,14.0,14.0,65,0.00,FEW,,0.00,309.0,WeatherDisplay:10.37,2013-06-23 16:18:00,
2013-06-23 18:20:00,77.3,64.6,29.96,SW,236,11.5,11.5,65,0.00,FEW,,0.00,302.0,WeatherDisplay:10.37,2013-06-23 16:20:00,
2013-06-23 18:21:00,77.3,64.6,29.95,WNW,288,11.5,11.5,65,0.00,FEW,,0.00,301.0,WeatherDisplay:10.37,2013-06-23 16:21:00,
2013-06-23 18:22:00,77.3,65.1,29.95,West,268,9.2,9.2,66,0.00,FEW,,0.00,301.0,WeatherDisplay:10.37,2013-06-23 16:22:00,
2013-06-23 18:23:00,77.3,65.1,29.95,West,277,9.2,9.2,66,0.00,FEW,,0.00,301.0,WeatherDisplay:10.37,2013-06-23 16:23:00,
2013-06-23 18:25:00,77.4,65.1,29.95,West,269,12.7,12.7,66,0.00,FEW,,0.00,295.0,WeatherDisplay:10.37,2013-06-23 16:25:00,
2013-06-23 18:26:00,77.4,65.1,29.95,WSW,250,12.7,12.7,66,0.00,FEW,,0.00,295.0,WeatherDisplay:10.37,2013-06-23 16:26:00,
2013-06-23 18:28:00,77.2,65.0,29.95,West,272,11.5,11.5,66,0.00,FEW,,0.00,295.0,WeatherDisplay:10.37,2013-06-23 16:28:00,
2013-06-23 18:31:00,77.1,64.9,29.95,WSW,250,12.0,12.0,66,0.00,FEW,,0.00,265.0,WeatherDisplay:10.37,2013-06-23 16:31:00,
2013-06-23 18:33:00,77.0,64.3,29.95,WSW,248,11.5,11.5,65,0.00,FEW,,0.00,260.0,WeatherDisplay:10.37,2013-06-23 16:33:00,
2013-06-23 18:34:00,77.0,64.3,29.95,WSW,252,11.5,11.5,65,0.00,FEW,,0.00,260.0,WeatherDisplay:10.37,2013-06-23 16:34:00,
2013-06-23 18:36:00,76.9,64.2,29.95,WSW,245,12.7,12.7,65,0.00,FEW,,0.00,251.0,WeatherDisplay:10.37,2013-06-23 16:36:00,
2013-06-23 18:37:00,76.9,64.7,29.95,WSW,251,11.5,11.5,66,0.00,FEW,,0.00,250.0,WeatherDisplay:10.37,2013-06-23 16:37:00,
2013-06-23 18:39:00,76.9,64.7,29.95,West,260,11.5,11.5,66,0.00,FEW,,0.00,248.0,WeatherDisplay:10.37,2013-06-23 16:39:00,
2013-06-23 18:41:00,76.8,64.6,29.95,SW,234,12.7,12.7,66,0.00,FEW,,0.00,246.0,WeatherDisplay:10.37,2013-06-23 16:41:00,
2013-06-23 18:42:00,76.8,64.6,29.95,WSW,252,12.7,12.7,66,0.00,FEW,,0.00,243.0,WeatherDisplay:10.37,2013-06-23 16:42:00,
2013-06-23 18:44:00,76.8,64.6,29.95,WSW,257,11.5,11.5,66,0.00,FEW,,0.00,236.0,WeatherDisplay:10.37,2013-06-23 16:44:00,
2013-06-23 18:46:00,77.0,65.2,29.95,WSW,254,8.0,8.0,67,0.00,FEW,,0.00,229.0,WeatherDisplay:10.37,2013-06-23 16:46:00,
2013-06-23 18:47:00,77.0,65.2,29.95,WSW,242,10.4,10.4,67,0.00,FEW,,0.00,229.0,WeatherDisplay:10.37,2013-06-23 16:47:00,
2013-06-23 18:49:00,77.1,65.3,29.95,SSW,205,7.0,7.0,67,0.00,FEW,,0.00,216.0,WeatherDisplay:10.37,2013-06-23 16:49:00,
2013-06-23 18:50:00,77.2,65.0,29.95,WSW,243,10.4,10.4,66,0.00,FEW,,0.00,216.0,WeatherDisplay:10.37,2013-06-23 16:50:00,
2013-06-23 18:52:00,77.2,64.5,29.95,WSW,247,10.4,10.4,65,0.00,FEW,,0.00,207.0,WeatherDisplay:10.37,2013-06-23 16:52:00,
2013-06-23 18:55:00,77.1,64.9,29.95,West,262,11.5,11.5,66,0.00,FEW,,0.00,199.0,WeatherDisplay:10.37,2013-06-23 16:55:00,
2013-06-23 18:57:00,77.0,64.8,29.95,SW,216,9.2,9.2,66,0.00,FEW,,0.00,190.0,WeatherDisplay:10.37,2013-06-23 16:57:00,
2013-06-23 19:02:00,77.0,64.8,29.95,WSW,243,9.0,9.0,66,0.00,FEW,,0.00,172.0,WeatherDisplay:10.37,2013-06-23 17:02:00,
2013-06-23 19:03:00,76.9,64.7,29.95,SW,227,11.5,11.5,66,0.00,FEW,,0.00,171.0,WeatherDisplay:10.37,2013-06-23 17:03:00,
2013-06-23 19:04:00,76.9,64.7,29.95,SW,229,11.5,11.5,66,0.00,FEW,,0.00,167.0,WeatherDisplay:10.37,2013-06-23 17:04:00,
2013-06-23 19:07:00,76.8,64.6,29.95,West,281,11.5,11.5,66,0.00,FEW,,0.00,160.0,WeatherDisplay:10.37,2013-06-23 17:07:00,
2013-06-23 19:09:00,76.8,65.0,29.95,WSW,254,9.2,9.2,67,0.00,FEW,,0.00,156.0,WeatherDisplay:10.37,2013-06-23 17:09:00,
2013-06-23 19:12:00,76.6,64.8,29.95,WSW,246,9.2,9.2,67,0.00,FEW,,0.00,144.0,WeatherDisplay:10.37,2013-06-23 17:12:00,
2013-06-23 19:13:00,76.6,64.8,29.95,WSW,244,8.1,8.1,67,0.00,FEW,,0.00,144.0,WeatherDisplay:10.37,2013-06-23 17:13:00,
2013-06-23 19:14:00,76.7,64.9,29.95,West,268,8.0,8.0,67,0.00,FEW,,0.00,139.0,WeatherDisplay:10.37,2013-06-23 17:14:00,
2013-06-23 19:15:00,76.8,65.0,29.95,West,281,8.1,8.1,67,0.00,FEW,,0.00,139.0,WeatherDisplay:10.37,2013-06-23 17:15:00,
2013-06-23 19:17:00,76.7,64.9,29.95,West,263,9.2,9.2,67,0.00,FEW,,0.00,135.0,WeatherDisplay:10.37,2013-06-23 17:17:00,
2013-06-23 19:18:00,76.7,64.9,29.95,West,270,6.9,6.9,67,0.00,FEW,,0.00,135.0,WeatherDisplay:10.37,2013-06-23 17:18:00,
2013-06-23 19:19:00,76.6,64.8,29.95,WSW,243,6.9,6.9,67,0.00,FEW,,0.00,139.0,WeatherDisplay:10.37,2013-06-23 17:19:00,
2013-06-23 19:20:00,76.6,64.8,29.95,SW,225,6.9,6.9,67,0.00,FEW,,0.00,137.0,WeatherDisplay:10.37,2013-06-23 17:20:00,
2013-06-23 19:22:00,76.7,64.9,29.95,WNW,288,9.0,9.0,67,0.00,FEW,,0.00,134.0,WeatherDisplay:10.37,2013-06-23 17:22:00,
2013-06-23 19:23:00,76.6,64.8,29.95,West,266,11.5,11.5,67,0.00,FEW,,0.00,130.0,WeatherDisplay:10.37,2013-06-23 17:23:00,
2013-06-23 19:24:00,76.5,64.7,29.95,WSW,254,10.0,10.0,67,0.00,FEW,,0.00,130.0,WeatherDisplay:10.37,2013-06-23 17:24:00,
2013-06-23 19:25:00,76.5,64.7,29.95,WSW,250,11.5,11.5,67,0.00,FEW,,0.00,123.0,WeatherDisplay:10.37,2013-06-23 17:25:00,
2013-06-23 19:27:00,76.3,64.5,29.95,WSW,244,10.4,10.4,67,0.00,FEW,,0.00,120.0,WeatherDisplay:10.37,2013-06-23 17:27:00,
2013-06-23 19:28:00,76.2,64.4,29.95,West,270,11.5,11.5,67,0.00,FEW,,0.00,105.0,WeatherDisplay:10.37,2013-06-23 17:28:00,
2013-06-23 19:30:00,76.1,64.3,29.95,WSW,243,12.7,12.7,67,0.00,FEW,,0.00,109.0,WeatherDisplay:10.37,2013-06-23 17:30:00,
2013-06-23 19:33:00,76.1,64.8,29.95,SSW,211,8.1,8.1,68,0.00,FEW,,0.00,105.0,WeatherDisplay:10.37,2013-06-23 17:33:00,
2013-06-23 19:35:00,76.3,65.4,29.95,SW,221,10.4,10.4,69,0.00,FEW,,0.00,98.0,WeatherDisplay:10.37,2013-06-23 17:35:00,
2013-06-23 19:38:00,76.2,64.9,29.95,SW,215,8.1,8.1,68,0.00,FEW,,0.00,76.0,WeatherDisplay:10.37,2013-06-23 17:38:00,
2013-06-23 19:39:00,76.2,65.3,29.94,West,263,5.8,5.8,69,0.00,FEW,,0.00,69.0,WeatherDisplay:10.37,2013-06-23 17:39:00,
2013-06-23 19:40:00,76.2,65.3,29.95,SW,226,9.0,9.0,69,0.00,FEW,,0.00,65.0,WeatherDisplay:10.37,2013-06-23 17:40:00,
2013-06-23 19:43:00,76.1,65.2,29.95,WSW,247,10.4,10.4,69,0.00,FEW,,0.00,32.0,WeatherDisplay:10.37,2013-06-23 17:43:00,
2013-06-23 19:44:00,76.0,64.7,29.95,West,262,11.5,11.5,68,0.00,FEW,,0.00,30.0,WeatherDisplay:10.37,2013-06-23 17:44:00,
2013-06-23 19:45:00,75.8,64.5,29.95,SSW,209,10.4,10.4,68,0.00,FEW,,0.00,28.0,WeatherDisplay:10.37,2013-06-23 17:45:00,
2013-06-23 19:46:00,75.8,64.5,29.95,SW,224,10.4,10.4,68,0.00,FEW,,0.00,28.0,WeatherDisplay:10.37,2013-06-23 17:46:00,
2013-06-23 19:48:00,75.7,64.4,29.94,West,261,6.0,6.0,68,0.00,FEW,,0.00,26.0,WeatherDisplay:10.37,2013-06-23 17:48:00,
2013-06-23 19:49:00,75.6,64.3,29.94,WSW,247,9.2,9.2,68,0.00,FEW,,0.00,32.0,WeatherDisplay:10.37,2013-06-23 17:49:00,
2013-06-23 19:51:00,75.5,64.6,29.94,WSW,238,10.4,10.4,69,0.00,FEW,,0.00,26.0,WeatherDisplay:10.37,2013-06-23 17:51:00,
2013-06-23 19:53:00,75.3,64.4,29.94,West,266,8.1,8.1,69,0.00,FEW,,0.00,25.0,WeatherDisplay:10.37,2013-06-23 17:53:00,
2013-06-23 19:54:00,75.2,64.3,29.94,West,276,11.5,11.5,69,0.00,FEW,,0.00,25.0,WeatherDisplay:10.37,2013-06-23 17:54:00,
2013-06-23 19:56:00,75.0,64.1,29.95,WSW,254,11.0,11.0,69,0.00,FEW,,0.00,28.0,WeatherDisplay:10.37,2013-06-23 17:56:00,
2013-06-23 19:58:00,74.8,63.9,29.95,West,263,12.7,12.7,69,0.00,FEW,,0.00,23.0,WeatherDisplay:10.37,2013-06-23 17:58:00,
2013-06-23 19:59:00,74.7,63.9,29.94,West,276,12.7,12.7,69,0.00,FEW,,0.00,21.0,WeatherDisplay:10.37,2013-06-23 17:59:00,
2013-06-23 20:01:00,74.5,63.7,29.94,West,273,11.5,11.5,69,0.00,FEW,,0.00,21.0,WeatherDisplay:10.37,2013-06-23 18:01:00,
2013-06-23 20:02:00,74.5,63.7,29.94,West,271,11.5,11.5,69,0.00,FEW,,0.00,19.0,WeatherDisplay:10.37,2013-06-23 18:02:00,
2013-06-23 20:03:00,74.4,64.0,29.94,SW,225,10.4,10.4,70,0.00,FEW,,0.00,19.0,WeatherDisplay:10.37,2013-06-23 18:03:00,
2013-06-23 20:04:00,74.4,64.0,29.95,WSW,246,9.2,9.2,70,0.00,FEW,,0.00,19.0,WeatherDisplay:10.37,2013-06-23 18:04:00,
2013-06-23 20:06:00,74.3,64.3,29.94,West,262,9.0,9.0,71,0.00,FEW,,0.00,18.0,WeatherDisplay:10.37,2013-06-23 18:06:00,
2013-06-23 20:07:00,74.3,64.3,29.94,SW,229,11.5,11.5,71,0.00,FEW,,0.00,18.0,WeatherDisplay:10.37,2013-06-23 18:07:00,
2013-06-23 20:08:00,74.3,64.3,29.95,WSW,249,10.4,10.4,71,0.00,FEW,,0.00,16.0,WeatherDisplay:10.37,2013-06-23 18:08:00,
2013-06-23 20:09:00,74.2,64.2,29.95,WSW,250,10.4,10.4,71,0.00,FEW,,0.00,16.0,WeatherDisplay:10.37,2013-06-23 18:09:00,
2013-06-23 20:10:00,74.2,64.2,29.95,WSW,254,9.2,9.2,71,0.00,FEW,,0.00,16.0,WeatherDisplay:10.37,2013-06-23 18:10:00,
2013-06-23 20:11:00,74.2,64.2,29.95,WSW,249,11.5,11.5,71,0.00,FEW,,0.00,16.0,WeatherDisplay:10.37,2013-06-23 18:11:00,
2013-06-23 20:12:00,74.2,64.2,29.95,West,262,11.5,11.5,71,0.00,FEW,,0.00,16.0,WeatherDisplay:10.37,2013-06-23 18:12:00,
2013-06-23 20:14:00,74.2,64.6,29.95,SW,234,6.9,6.9,72,0.00,FEW,,0.00,14.0,WeatherDisplay:10.37,2013-06-23 18:14:00,
2013-06-23 20:15:00,74.2,64.6,29.95,SW,228,8.1,8.1,72,0.00,FEW,,0.00,14.0,WeatherDisplay:10.37,2013-06-23 18:15:00,
2013-06-23 20:17:00,74.2,64.6,29.94,WSW,237,5.8,5.8,72,0.00,FEW,,0.00,12.0,WeatherDisplay:10.37,2013-06-23 18:17:00,
2013-06-23 20:19:00,74.1,64.5,29.94,West,271,8.1,8.1,72,0.00,FEW,,0.00,12.0,WeatherDisplay:10.37,2013-06-23 18:19:00,
2013-06-23 20:20:00,74.1,64.5,29.94,WSW,238,8.1,8.1,72,0.00,FEW,,0.00,12.0,WeatherDisplay:10.37,2013-06-23 18:20:00,
2013-06-23 20:22:00,74.0,64.4,29.94,WSW,255,6.9,6.9,72,0.00,FEW,,0.00,12.0,WeatherDisplay:10.37,2013-06-23 18:22:00,
2013-06-23 20:25:00,74.0,64.4,29.94,WSW,255,10.4,10.4,72,0.00,FEW,,0.00,11.0,WeatherDisplay:10.37,2013-06-23 18:25:00,
2013-06-23 20:27:00,73.9,64.7,29.94,WSW,238,10.4,10.4,73,0.00,FEW,,0.00,11.0,WeatherDisplay:10.37,2013-06-23 18:27:00,
2013-06-23 20:28:00,73.9,64.7,29.94,SW,221,7.0,7.0,73,0.00,FEW,,0.00,11.0,WeatherDisplay:10.37,2013-06-23 18:28:00,
2013-06-23 20:30:00,73.9,64.7,29.94,SW,236,8.1,8.1,73,0.00,FEW,,0.00,11.0,WeatherDisplay:10.37,2013-06-23 18:30:00,
2013-06-23 20:31:00,73.8,64.6,29.94,WSW,254,9.2,9.2,73,0.00,FEW,,0.00,7.0,WeatherDisplay:10.37,2013-06-23 18:31:00,
2013-06-23 20:32:00,73.8,64.6,29.94,WSW,256,8.1,8.1,73,0.00,FEW,,0.00,7.0,WeatherDisplay:10.37,2013-06-23 18:32:00,
2013-06-23 20:33:00,73.8,64.6,29.94,WSW,238,9.0,9.0,73,0.00,FEW,,0.00,5.0,WeatherDisplay:10.37,2013-06-23 18:33:00,
2013-06-23 20:35:00,73.7,64.9,29.94,WSW,240,6.9,6.9,74,0.00,FEW,,0.00,5.0,WeatherDisplay:10.37,2013-06-23 18:35:00,
2013-06-23 20:36:00,73.7,64.9,29.94,SW,223,5.8,5.8,74,0.00,FEW,,0.00,5.0,WeatherDisplay:10.37,2013-06-23 18:36:00,
2013-06-23 20:37:00,73.6,64.8,29.94,SW,227,4.6,4.6,74,0.00,FEW,,0.00,5.0,WeatherDisplay:10.37,2013-06-23 18:37:00,
2013-06-23 20:38:00,73.6,64.8,29.94,WSW,249,5.8,5.8,74,0.00,FEW,,0.00,5.0,WeatherDisplay:10.37,2013-06-23 18:38:00,
2013-06-23 20:40:00,73.6,64.8,29.94,SW,226,11.5,11.5,74,0.00,FEW,,0.00,0.0,WeatherDisplay:10.37,2013-06-23 18:40:00,
2013-06-23 20:41:00,73.5,64.7,29.94,WSW,246,10.4,10.4,74,0.00,FEW,,0.00,0.0,WeatherDisplay:10.37,2013-06-23 18:41:00,
2013-06-23 20:42:00,73.5,64.7,29.94,WSW,245,9.2,9.2,74,0.00,FEW,,0.00,0.0,WeatherDisplay:10.37,2013-06-23 18:42:00,
2013-06-23 20:43:00,73.4,65.0,29.94,SW,236,5.8,5.8,75,0.00,FEW,,0.00,0.0,WeatherDisplay:10.37,2013-06-23 18:43:00,
2013-06-23 20:46:00,73.4,65.0,29.94,WSW,248,11.5,11.5,75,0.00,FEW,,0.00,0.0,WeatherDisplay:10.37,2013-06-23 18:46:00,
2013-06-23 20:47:00,73.2,64.8,29.94,WSW,238,10.4,10.4,75,0.00,FEW,,0.00,0.0,WeatherDisplay:10.37,2013-06-23 18:47:00,
2013-06-23 20:48:00,73.2,64.8,29.94,West,270,10.4,10.4,75,0.00,FEW,,0.00,0.0,WeatherDisplay:10.37,2013-06-23 18:48:00,
2013-06-23 20:51:00,73.2,64.8,29.94,WSW,252,5.8,5.8,75,0.00,FEW,,0.00,0.0,WeatherDisplay:10.37,2013-06-23 18:51:00,
2013-06-23 20:52:00,73.1,64.7,29.94,SSW,198,5.8,5.8,75,0.00,FEW,,0.00,0.0,WeatherDisplay:10.37,2013-06-23 18:52:00,
2013-06-23 20:53:00,73.1,64.7,29.94,SW,235,7.0,7.0,75,0.00,FEW,,0.00,0.0,WeatherDisplay:10.37,2013-06-23 18:53:00,
2013-06-23 20:56:00,73.0,64.6,29.94,West,266,4.6,0.0,75,0.00,FEW,,0.00,0.0,WeatherDisplay:10.37,2013-06-23 18:56:00,
2013-06-23 20:57:00,73.0,64.6,29.94,SW,224,7.0,7.0,75,0.00,FEW,,0.00,0.0,WeatherDisplay:10.37,2013-06-23 18:57:00,
2013-06-23 20:58:00,73.0,64.6,29.94,SW,224,6.9,6.9,75,0.00,FEW,,0.00,0.0,WeatherDisplay:10.37,2013-06-23 18:58:00,
2013-06-23 21:01:00,72.9,64.9,29.94,WSW,243,8.1,8.1,76,0.00,FEW,,0.00,0.0,WeatherDisplay:10.37,2013-06-23 19:01:00,
2013-06-23 21:02:00,72.9,64.9,29.94,SW,223,8.1,8.1,76,0.00,FEW,,0.00,0.0,WeatherDisplay:10.37,2013-06-23 19:02:00,
2013-06-23 21:03:00,72.8,64.8,29.94,WSW,242,5.8,5.8,76,0.00,FEW,,0.00,0.0,WeatherDisplay:10.37,2013-06-23 19:03:00,
2013-06-23 21:06:00,72.7,64.7,29.94,SW,222,6.9,6.9,76,0.00,FEW,,0.00,0.0,WeatherDisplay:10.37,2013-06-23 19:06:00,
2013-06-23 21:07:00,72.7,64.7,29.94,SW,236,4.0,4.0,76,0.00,FEW,,0.00,0.0,WeatherDisplay:10.37,2013-06-23 19:07:00,
2013-06-23 21:08:00,72.6,65.0,29.94,SW,227,5.8,5.8,77,0.00,FEW,,0.00,0.0,WeatherDisplay:10.37,2013-06-23 19:08:00,
2013-06-23 21:09:00,72.6,65.0,29.94,SW,224,4.0,4.0,77,0.00,FEW,,0.00,0.0,WeatherDisplay:10.37,2013-06-23 19:09:00,
2013-06-23 21:11:00,72.5,64.9,29.95,WSW,245,5.0,5.0,77,0.00,FEW,,0.00,0.0,WeatherDisplay:10.37,2013-06-23 19:11:00,
2013-06-23 21:12:00,72.5,64.9,29.95,WSW,239,5.8,5.8,77,0.00,FEW,,0.00,0.0,WeatherDisplay:10.37,2013-06-23 19:12:00,
2013-06-23 21:13:00,72.5,64.9,29.95,West,267,4.6,4.6,77,0.00,FEW,,0.00,0.0,WeatherDisplay:10.37,2013-06-23 19:13:00,
2013-06-23 21:14:00,72.5,64.9,29.95,SW,217,5.8,5.8,77,0.00,FEW,,0.00,0.0,WeatherDisplay:10.37,2013-06-23 19:14:00,
2013-06-23 21:16:00,72.4,64.8,29.95,SW,223,4.6,4.6,77,0.00,FEW,,0.00,0.0,WeatherDisplay:10.37,2013-06-23 19:16:00,
2013-06-23 21:17:00,72.4,64.8,29.95,SW,220,5.0,5.0,77,0.00,FEW,,0.00,0.0,WeatherDisplay:10.37,2013-06-23 19:17:00,
2013-06-23 21:18:00,72.4,64.8,29.95,SW,224,4.6,4.6,77,0.00,FEW,,0.00,0.0,WeatherDisplay:10.37,2013-06-23 19:18:00,
2013-06-23 21:19:00,72.4,64.8,29.95,SW,226,5.0,5.0,77,0.00,FEW,,0.00,0.0,WeatherDisplay:10.37,2013-06-23 19:19:00,
2013-06-23 21:21:00,72.3,64.7,29.95,SW,228,6.9,6.9,77,0.00,FEW,,0.00,0.0,WeatherDisplay:10.37,2013-06-23 19:21:00,
2013-06-23 21:22:00,72.3,64.7,29.95,WSW,244,5.8,5.8,77,0.00,FEW,,0.00,0.0,WeatherDisplay:10.37,2013-06-23 19:22:00,
2013-06-23 21:23:00,72.3,64.7,29.95,SW,221,5.8,5.8,77,0.00,FEW,,0.00,0.0,WeatherDisplay:10.37,2013-06-23 19:23:00,
2013-06-23 21:24:00,72.2,64.6,29.95,SW,219,5.8,5.8,77,0.00,FEW,,0.00,0.0,WeatherDisplay:10.37,2013-06-23 19:24:00,
2013-06-23 21:27:00,72.2,65.0,29.95,WSW,240,2.3,2.3,78,0.00,FEW,,0.00,0.0,WeatherDisplay:10.37,2013-06-23 19:27:00,
2013-06-23 21:28:00,72.1,64.9,29.95,SW,214,6.0,6.0,78,0.00,FEW,,0.00,0.0,WeatherDisplay:10.37,2013-06-23 19:28:00,
2013-06-23 21:29:00,72.1,64.9,29.95,SW,228,5.8,5.8,78,0.00,FEW,,0.00,0.0,WeatherDisplay:10.37,2013-06-23 19:29:00,
2013-06-23 21:32:00,72.1,64.9,29.95,SW,227,4.6,0.0,78,0.00,FEW,,0.00,0.0,WeatherDisplay:10.37,2013-06-23 19:32:00,
2013-06-23 21:33:00,72.0,64.8,29.95,SW,232,1.1,1.1,78,0.00,FEW,,0.00,0.0,WeatherDisplay:10.37,2013-06-23 19:33:00,
2013-06-23 21:34:00,72.0,64.8,29.95,WSW,244,1.1,0.0,78,0.00,FEW,,0.00,0.0,WeatherDisplay:10.37,2013-06-23 19:34:00,
2013-06-23 21:37:00,72.0,64.8,29.95,SW,223,4.6,0.0,78,0.00,FEW,,0.00,0.0,WeatherDisplay:10.37,2013-06-23 19:37:00,
2013-06-23 21:38:00,71.9,64.7,29.95,SW,223,1.0,0.0,78,0.00,FEW,,0.00,0.0,WeatherDisplay:10.37,2013-06-23 19:38:00,
2013-06-23 21:39:00,71.9,64.7,29.95,SW,229,1.1,0.0,78,0.00,FEW,,0.00,0.0,WeatherDisplay:10.37,2013-06-23 19:39:00,
2013-06-23 21:42:00,71.9,65.0,29.95,WSW,249,3.5,3.5,79,0.00,FEW,,0.00,0.0,WeatherDisplay:10.37,2013-06-23 19:42:00,
2013-06-23 21:43:00,71.9,65.0,29.95,WSW,249,3.5,3.5,79,0.00,FEW,,0.00,0.0,WeatherDisplay:10.37,2013-06-23 19:43:00,
2013-06-23 21:44:00,71.9,65.0,29.96,WSW,247,0.0,0.0,79,0.00,FEW,,0.00,0.0,WeatherDisplay:10.37,2013-06-23 19:44:00,
2013-06-23 21:45:00,71.9,65.0,29.96,SW,229,2.3,2.3,79,0.00,FEW,,0.00,0.0,WeatherDisplay:10.37,2013-06-23 19:45:00,
2013-06-23 21:48:00,71.8,64.9,29.96,WSW,244,3.5,3.5,79,0.00,FEW,,0.00,0.0,WeatherDisplay:10.37,2013-06-23 19:48:00,
2013-06-23 21:49:00,71.8,64.9,29.95,WSW,255,4.6,4.6,79,0.00,FEW,,0.00,0.0,WeatherDisplay:10.37,2013-06-23 19:49:00,
2013-06-23 21:50:00,71.8,64.9,29.95,SW,224,4.6,4.6,79,0.00,FEW,,0.00,0.0,WeatherDisplay:10.37,2013-06-23 19:50:00,
2013-06-23 21:53:00,71.8,64.9,29.95,SSW,211,5.0,5.0,79,0.00,FEW,,0.00,0.0,WeatherDisplay:10.37,2013-06-23 19:53:00,
2013-06-23 21:54:00,71.8,64.9,29.96,South,175,4.6,4.6,79,0.00,FEW,,0.00,0.0,WeatherDisplay:10.37,2013-06-23 19:54:00,
2013-06-23 21:55:00,71.8,64.9,29.95,South,175,3.5,3.5,79,0.00,FEW,,0.00,0.0,WeatherDisplay:10.37,2013-06-23 19:55:00,
2013-06-23 21:58:00,71.8,64.9,29.96,SSW,196,3.5,3.5,79,0.00,FEW,,0.00,0.0,WeatherDisplay:10.37,2013-06-23 19:58:00,
2013-06-23 21:59:00,71.7,64.8,29.96,South,185,3.5,0.0,79,0.00,FEW,,0.00,0.0,WeatherDisplay:10.37,2013-06-23 19:59:00,
2013-06-23 22:00:00,71.7,64.8,29.96,South,179,1.1,0.0,79,0.00,FEW,,0.00,0.0,WeatherDisplay:10.37,2013-06-23 20:00:00,
2013-06-23 22:03:00,71.6,64.7,29.96,SW,216,0.0,0.3,79,0.00,FEW,,0.00,0.0,WeatherDisplay:10.37,2013-06-23 20:03:00,
2013-06-23 22:05:00,71.6,64.7,29.96,South,176,2.3,2.3,79,0.00,FEW,,0.00,0.0,WeatherDisplay:10.37,2013-06-23 20:05:00,
2013-06-23 22:06:00,71.6,64.7,29.96,South,179,3.5,3.5,79,0.00,FEW,,0.00,0.0,WeatherDisplay:10.37,2013-06-23 20:06:00,
2013-06-23 22:08:00,71.6,64.7,29.96,SW,216,2.0,2.0,79,0.00,FEW,,0.00,0.0,WeatherDisplay:10.37,2013-06-23 20:08:00,
2013-06-23 22:09:00,71.5,64.6,29.96,SW,214,3.5,3.5,79,0.00,FEW,,0.00,0.0,WeatherDisplay:10.37,2013-06-23 20:09:00,
2013-06-23 22:10:00,71.5,64.6,29.96,SW,222,3.5,3.5,79,0.00,FEW,,0.00,0.0,WeatherDisplay:10.37,2013-06-23 20:10:00,
2013-06-23 22:11:00,71.5,64.6,29.96,SW,222,3.5,0.0,79,0.00,FEW,,0.00,0.0,WeatherDisplay:10.37,2013-06-23 20:11:00,
2013-06-23 22:13:00,71.4,64.5,29.96,SW,229,0.0,0.0,79,0.00,FEW,,0.00,0.0,WeatherDisplay:10.37,2013-06-23 20:13:00,
2013-06-23 22:14:00,71.4,64.9,29.96,SW,229,0.0,0.0,80,0.00,FEW,,0.00,0.0,WeatherDisplay:10.37,2013-06-23 20:14:00,
2013-06-23 22:15:00,71.4,64.9,29.96,SW,229,0.0,0.0,80,0.00,FEW,,0.00,0.0,WeatherDisplay:10.37,2013-06-23 20:15:00,
2013-06-23 22:16:00,71.4,64.9,29.96,SW,229,0.0,0.0,80,0.00,FEW,,0.00,0.0,WeatherDisplay:10.37,2013-06-23 20:16:00,
2013-06-23 22:19:00,71.4,64.9,29.96,South,185,0.0,0.0,80,0.00,FEW,,0.00,0.0,WeatherDisplay:10.37,2013-06-23 20:19:00,
2013-06-23 22:20:00,71.3,64.8,29.96,South,185,0.0,0.0,80,0.00,FEW,,0.00,0.0,WeatherDisplay:10.37,2013-06-23 20:20:00,
2013-06-23 22:21:00,71.3,64.8,29.96,South,191,0.0,0.0,80,0.00,FEW,,0.00,0.0,WeatherDisplay:10.37,2013-06-23 20:21:00,
2013-06-23 22:24:00,71.2,64.7,29.96,South,191,0.0,0.0,80,0.00,FEW,,0.00,0.0,WeatherDisplay:10.37,2013-06-23 20:24:00,
2013-06-23 22:25:00,71.2,64.7,29.96,South,191,0.0,0.0,80,0.00,FEW,,0.00,0.0,WeatherDisplay:10.37,2013-06-23 20:25:00,
2013-06-23 22:26:00,71.2,64.7,29.96,South,191,0.0,0.0,80,0.00,FEW,,0.00,0.0,WeatherDisplay:10.37,2013-06-23 20:26:00,
2013-06-23 22:27:00,71.2,64.7,29.96,South,191,0.0,0.0,80,0.00,FEW,,0.00,0.0,WeatherDisplay:10.37,2013-06-23 20:27:00,
2013-06-23 22:29:00,71.2,64.7,29.96,South,186,3.5,3.5,80,0.00,FEW,,0.00,0.0,WeatherDisplay:10.37,2013-06-23 20:29:00,
2013-06-23 22:30:00,71.2,64.7,29.96,South,190,3.5,3.5,80,0.00,FEW,,0.00,0.0,WeatherDisplay:10.37,2013-06-23 20:30:00,
2013-06-23 22:31:00,71.2,64.7,29.96,South,171,3.5,3.5,80,0.00,FEW,,0.00,0.0,WeatherDisplay:10.37,2013-06-23 20:31:00,
2013-06-23 22:32:00,71.2,64.7,29.96,South,185,4.0,4.0,80,0.00,FEW,,0.00,0.0,WeatherDisplay:10.37,2013-06-23 20:32:00,
2013-06-23 22:34:00,71.2,64.7,29.96,South,190,3.5,3.5,80,0.00,FEW,,0.00,0.0,WeatherDisplay:10.37,2013-06-23 20:34:00,
2013-06-23 22:35:00,71.2,64.7,29.96,South,187,3.5,3.5,80,0.00,FEW,,0.00,0.0,WeatherDisplay:10.37,2013-06-23 20:35:00,
2013-06-23 22:37:00,71.2,64.7,29.96,SSW,196,3.5,3.5,80,0.00,FEW,,0.00,0.0,WeatherDisplay:10.37,2013-06-23 20:37:00,
2013-06-23 22:39:00,71.2,65.1,29.95,SSW,192,3.0,3.0,81,0.00,FEW,,0.00,0.0,WeatherDisplay:10.37,2013-06-23 20:39:00,
2013-06-23 22:40:00,71.2,65.1,29.95,SSW,205,3.5,3.5,81,0.00,FEW,,0.00,0.0,WeatherDisplay:10.37,2013-06-23 20:40:00,
2013-06-23 22:42:00,71.1,65.0,29.95,SSW,211,3.5,3.5,81,0.00,FEW,,0.00,0.0,WeatherDisplay:10.37,2013-06-23 20:42:00,
2013-06-23 22:45:00,71.1,65.0,29.95,SSW,205,4.0,4.0,81,0.00,FEW,,0.00,0.0,WeatherDisplay:10.37,2013-06-23 20:45:00,
2013-06-23 22:47:00,71.0,64.9,29.95,SSW,203,3.5,3.5,81,0.00,FEW,,0.00,0.0,WeatherDisplay:10.37,2013-06-23 20:47:00,
2013-06-23 22:48:00,71.0,64.9,29.95,SSW,200,4.0,4.0,81,0.00,FEW,,0.00,0.0,WeatherDisplay:10.37,2013-06-23 20:48:00,
2013-06-23 22:50:00,71.0,64.9,29.95,South,180,0.0,0.0,81,0.00,FEW,,0.00,0.0,WeatherDisplay:10.37,2013-06-23 20:50:00,
2013-06-23 22:51:00,71.0,64.9,29.95,South,180,2.0,2.0,81,0.00,FEW,,0.00,0.0,WeatherDisplay:10.37,2013-06-23 20:51:00,
2013-06-23 22:52:00,71.0,64.9,29.95,South,186,4.0,4.0,81,0.00,FEW,,0.00,0.0,WeatherDisplay:10.37,2013-06-23 20:52:00,
2013-06-23 22:53:00,71.0,64.9,29.95,SSW,195,3.5,3.5,81,0.00,FEW,,0.00,0.0,WeatherDisplay:10.37,2013-06-23 20:53:00,
2013-06-23 22:55:00,70.9,64.8,29.96,SSW,193,3.5,3.5,81,0.00,FEW,,0.00,0.0,WeatherDisplay:10.37,2013-06-23 20:55:00,
2013-06-23 22:56:00,70.9,64.8,29.96,South,189,4.0,4.0,81,0.00,FEW,,0.00,0.0,WeatherDisplay:10.37,2013-06-23 20:56:00,
2013-06-23 22:57:00,70.9,64.8,29.95,South,180,3.5,3.5,81,0.00,FEW,,0.00,0.0,WeatherDisplay:10.37,2013-06-23 20:57:00,
2013-06-23 22:58:00,70.9,64.8,29.96,South,184,3.5,3.5,81,0.00,FEW,,0.00,0.0,WeatherDisplay:10.37,2013-06-23 20:58:00,
2013-06-23 23:01:00,70.9,64.8,29.96,South,174,2.0,2.0,81,0.00,FEW,,0.00,0.0,WeatherDisplay:10.37,2013-06-23 21:01:00,
2013-06-23 23:02:00,70.8,64.7,29.96,SSW,194,3.0,3.0,81,0.00,FEW,,0.00,0.0,WeatherDisplay:10.37,2013-06-23 21:02:00,
2013-06-23 23:03:00,70.8,64.7,29.95,South,182,3.5,3.5,81,0.00,FEW,,0.00,0.0,WeatherDisplay:10.37,2013-06-23 21:03:00,
2013-06-23 23:06:00,70.8,64.7,29.95,South,184,3.5,3.5,81,0.00,FEW,,0.00,0.0,WeatherDisplay:10.37,2013-06-23 21:06:00,
2013-06-23 23:07:00,70.8,64.7,29.95,SSE,167,5.8,5.8,81,0.00,FEW,,0.00,0.0,WeatherDisplay:10.37,2013-06-23 21:07:00,
2013-06-23 23:08:00,70.8,64.7,29.95,South,191,3.5,3.5,81,0.00,FEW,,0.00,0.0,WeatherDisplay:10.37,2013-06-23 21:08:00,
2013-06-23 23:09:00,70.8,64.7,29.95,South,172,3.5,3.5,81,0.00,FEW,,0.00,0.0,WeatherDisplay:10.37,2013-06-23 21:09:00,
2013-06-23 23:11:00,70.7,64.6,29.95,South,173,3.5,3.5,81,0.00,FEW,,0.00,0.0,WeatherDisplay:10.37,2013-06-23 21:11:00,
2013-06-23 23:12:00,70.7,64.6,29.95,SSE,168,0.0,0.0,81,0.00,FEW,,0.00,0.0,WeatherDisplay:10.37,2013-06-23 21:12:00,
2013-06-23 23:13:00,70.7,64.6,29.95,South,177,4.0,4.0,81,0.00,FEW,,0.00,0.0,WeatherDisplay:10.37,2013-06-23 21:13:00,
2013-06-23 23:14:00,70.7,64.6,29.95,SSW,201,3.5,3.5,81,0.00,FEW,,0.00,0.0,WeatherDisplay:10.37,2013-06-23 21:14:00,
2013-06-23 23:16:00,70.7,64.6,29.95,South,185,0.0,0.0,81,0.00,FEW,,0.00,0.0,WeatherDisplay:10.37,2013-06-23 21:16:00,
2013-06-23 23:17:00,70.7,64.6,29.96,SSW,192,3.5,3.5,81,0.00,FEW,,0.00,0.0,WeatherDisplay:10.37,2013-06-23 21:17:00,
2013-06-23 23:18:00,70.6,64.5,29.95,South,186,3.5,3.5,81,0.00,FEW,,0.00,0.0,WeatherDisplay:10.37,2013-06-23 21:18:00,
2013-06-23 23:19:00,70.6,64.5,29.95,South,176,3.5,3.5,81,0.00,FEW,,0.00,0.0,WeatherDisplay:10.37,2013-06-23 21:19:00,
2013-06-23 23:21:00,70.6,64.5,29.95,SSE,165,3.5,3.5,81,0.00,FEW,,0.00,0.0,WeatherDisplay:10.37,2013-06-23 21:21:00,
2013-06-23 23:22:00,70.6,64.5,29.95,SSW,198,3.5,0.0,81,0.00,FEW,,0.00,0.0,WeatherDisplay:10.37,2013-06-23 21:22:00,
2013-06-23 23:23:00,70.6,64.5,29.95,SSW,198,0.0,0.0,81,0.00,FEW,,0.00,0.0,WeatherDisplay:10.37,2013-06-23 21:23:00,
2013-06-23 23:24:00,70.5,64.4,29.95,South,182,0.0,0.0,81,0.00,FEW,,0.00,0.0,WeatherDisplay:10.37,2013-06-23 21:24:00,
2013-06-23 23:26:00,70.5,64.4,29.95,South,188,0.0,0.0,81,0.00,FEW,,0.00,0.0,WeatherDisplay:10.37,2013-06-23 21:26:00,
2013-06-23 23:27:00,70.5,64.4,29.96,SSW,201,0.0,0.0,81,0.00,FEW,,0.00,0.0,WeatherDisplay:10.37,2013-06-23 21:27:00,
2013-06-23 23:29:00,70.5,64.4,29.95,SSW,198,0.0,0.0,81,0.00,FEW,,0.00,0.0,WeatherDisplay:10.37,2013-06-23 21:29:00,
2013-06-23 23:31:00,70.4,64.3,29.95,South,184,3.5,3.5,81,0.00,FEW,,0.00,0.0,WeatherDisplay:10.37,2013-06-23 21:31:00,
2013-06-23 23:32:00,70.4,64.3,29.95,South,186,3.0,3.0,81,0.00,FEW,,0.00,0.0,WeatherDisplay:10.37,2013-06-23 21:32:00,
2013-06-23 23:34:00,70.4,64.3,29.95,South,169,3.5,3.5,81,0.00,FEW,,0.00,0.0,WeatherDisplay:10.37,2013-06-23 21:34:00,
2013-06-23 23:35:00,70.4,64.3,29.95,SSW,203,3.5,3.5,81,0.00,FEW,,0.00,0.0,WeatherDisplay:10.37,2013-06-23 21:35:00,
2013-06-23 23:36:00,70.4,64.3,29.96,SSW,200,3.5,3.5,81,0.00,FEW,,0.00,0.0,WeatherDisplay:10.37,2013-06-23 21:36:00,
2013-06-23 23:37:00,70.4,64.3,29.96,SSW,209,5.8,5.8,81,0.00,FEW,,0.00,0.0,WeatherDisplay:10.37,2013-06-23 21:37:00,
2013-06-23 23:39:00,70.4,64.6,29.95,South,181,3.5,3.5,82,0.00,FEW,,0.00,0.0,WeatherDisplay:10.37,2013-06-23 21:39:00,
2013-06-23 23:40:00,70.3,64.5,29.95,South,169,3.5,3.5,82,0.00,FEW,,0.00,0.0,WeatherDisplay:10.37,2013-06-23 21:40:00,
2013-06-23 23:41:00,70.3,64.5,29.95,SSW,194,3.5,3.5,82,0.00,FEW,,0.00,0.0,WeatherDisplay:10.37,2013-06-23 21:41:00,
2013-06-23 23:42:00,70.3,64.5,29.95,SSE,148,3.5,3.5,82,0.00,FEW,,0.00,0.0,WeatherDisplay:10.37,2013-06-23 21:42:00,
2013-06-23 23:44:00,70.3,64.5,29.95,SSE,153,2.0,0.0,82,0.00,FEW,,0.00,0.0,WeatherDisplay:10.37,2013-06-23 21:44:00,
2013-06-23 23:45:00,70.3,64.5,29.95,SSE,152,3.5,3.5,82,0.00,FEW,,0.00,0.0,WeatherDisplay:10.37,2013-06-23 21:45:00,
2013-06-23 23:47:00,70.3,64.5,29.95,SE,134,3.5,3.5,82,0.00,FEW,,0.00,0.0,WeatherDisplay:10.37,2013-06-23 21:47:00,
2013-06-23 23:49:00,70.3,64.5,29.95,SE,136,3.0,3.0,82,0.00,FEW,,0.00,0.0,WeatherDisplay:10.37,2013-06-23 21:49:00,
2013-06-23 23:51:00,70.4,64.6,29.95,SSE,151,3.5,3.5,82,0.00,FEW,,0.00,0.0,WeatherDisplay:10.37,2013-06-23 21:51:00,
2013-06-23 23:52:00,70.3,64.5,29.95,SE,144,3.5,3.5,82,0.00,FEW,,0.00,0.0,WeatherDisplay:10.37,2013-06-23 21:52:00,
2013-06-23 23:53:00,70.4,64.6,29.95,SE,131,2.3,2.3,82,0.00,FEW,,0.00,0.0,WeatherDisplay:10.37,2013-06-23 21:53:00,
2013-06-23 23:55:00,70.4,64.6,29.95,SE,144,1.1,0.0,82,0.00,FEW,,0.00,0.0,WeatherDisplay:10.37,2013-06-23 21:55:00,
2013-06-23 23:56:00,70.4,64.6,29.95,SSE,149,6.0,6.0,82,0.00,FEW,,0.00,0.0,WeatherDisplay:10.37,2013-06-23 21:56:00,
2013-06-23 23:57:00,70.4,64.6,29.95,SE,140,5.8,5.8,82,0.00,FEW,,0.00,0.0,WeatherDisplay:10.37,2013-06-23 21:57:00,
2013-06-23 23:58:00,70.4,64.6,29.95,SE,140,4.0,4.0,82,0.00,FEW,,0.00,0.0,WeatherDisplay:10.37,2013-06-23 21:58:00,
2013-06-23 23:59:00,70.4,64.6,29.95,SSE,147,4.6,4.6,82,0.00,FEW,,0.00,0.0,WeatherDisplay:10.37,2013-06-23 21:59:00,